Time,TemperatureF,DewpointF,PressureIn,WindDirection,WindDirectionDegrees,WindSpeedMPH,WindSpeedGustMPH,Humidity,HourlyPrecipIn,Conditions,Clouds,dailyrainin,SoftwareType,DateUTC
2013-08-21 00:00:00,69.4,67.9,30.06,SSW,211,0.0,3.0,95,0.00,CLR,OVC,0.00,WeatherDisplay:10.37,2013-08-21 04:00:00,
2013-08-21 00:01:00,69.3,67.8,30.07,SSW,211,1.7,3.0,95,0.00,CLR,OVC,0.00,WeatherDisplay:10.37,2013-08-21 04:01:00,
2013-08-21 00:06:00,69.3,67.8,30.07,SSW,211,3.3,3.5,95,0.00,CLR,OVC,0.00,WeatherDisplay:10.37,2013-08-21 04:06:00,
2013-08-21 00:11:00,69.2,67.7,30.07,SSW,211,0.0,1.2,95,0.00,CLR,OVC,0.00,WeatherDisplay:10.37,2013-08-21 04:11:00,
2013-08-21 00:12:00,69.2,67.7,30.07,SSW,211,0.0,0.0,95,0.00,CLR,OVC,0.00,WeatherDisplay:10.37,2013-08-21 04:12:00,
2013-08-21 00:16:00,69.2,67.7,30.07,SSW,211,0.7,1.2,95,0.00,CLR,OVC,0.00,WeatherDisplay:10.37,2013-08-21 04:16:00,
2013-08-21 00:18:00,69.2,67.7,30.07,SSW,211,0.9,1.2,95,0.00,CLR,OVC,0.00,WeatherDisplay:10.37,2013-08-21 04:18:00,
2013-08-21 00:21:00,69.2,68.0,30.07,SSW,211,1.0,2.3,96,0.00,CLR,OVC,0.00,WeatherDisplay:10.37,2013-08-21 04:21:00,
2013-08-21 00:23:00,69.2,68.0,30.07,SSW,211,1.8,2.3,96,0.00,CLR,OVC,0.00,WeatherDisplay:10.37,2013-08-21 04:23:00,
2013-08-21 00:26:00,69.3,67.8,30.07,SSW,211,0.8,2.3,95,0.00,CLR,OVC,0.00,WeatherDisplay:10.37,2013-08-21 04:26:00,
2013-08-21 00:27:00,69.3,67.8,30.07,SSW,211,0.5,2.3,95,0.00,CLR,OVC,0.00,WeatherDisplay:10.37,2013-08-21 04:27:00,
2013-08-21 00:29:00,69.3,67.8,30.07,SSW,211,0.0,0.0,95,0.00,CLR,OVC,0.00,WeatherDisplay:10.37,2013-08-21 04:29:00,
2013-08-21 00:31:00,69.1,67.6,30.07,SSW,211,0.0,0.0,95,0.00,CLR,OVC,0.00,WeatherDisplay:10.37,2013-08-21 04:31:00,
2013-08-21 00:32:00,69.1,67.6,30.07,SSW,211,0.0,0.0,95,0.00,CLR,OVC,0.00,WeatherDisplay:10.37,2013-08-21 04:32:00,
2013-08-21 00:34:00,69.1,67.6,30.07,SSW,211,0.0,0.0,95,0.00,CLR,OVC,0.00,WeatherDisplay:10.37,2013-08-21 04:34:00,
2013-08-21 00:36:00,69.0,67.5,30.07,SSW,211,0.0,0.0,95,0.00,CLR,OVC,0.00,WeatherDisplay:10.37,2013-08-21 04:36:00,
2013-08-21 00:37:00,69.0,67.5,30.07,SSW,211,0.4,2.3,95,0.00,CLR,OVC,0.00,WeatherDisplay:10.37,2013-08-21 04:37:00,
2013-08-21 00:39:00,68.9,67.4,30.07,SSW,211,1.9,3.5,95,0.00,CLR,OVC,0.00,WeatherDisplay:10.37,2013-08-21 04:39:00,
2013-08-21 00:41:00,68.9,65.8,30.08,SSW,211,1.4,2.3,90,0.00,CLR,OVC,0.00,WeatherDisplay:10.37,2013-08-21 04:41:00,
2013-08-21 00:42:00,68.9,67.4,30.07,SSW,211,1.6,2.3,95,0.00,CLR,OVC,0.00,WeatherDisplay:10.37,2013-08-21 04:42:00,
2013-08-21 00:43:00,68.9,67.4,30.07,SSW,211,1.3,2.3,95,0.00,CLR,OVC,0.00,WeatherDisplay:10.37,2013-08-21 04:43:00,
2013-08-21 00:44:00,68.9,67.4,30.07,SSW,211,2.0,3.5,95,0.00,CLR,OVC,0.00,WeatherDisplay:10.37,2013-08-21 04:44:00,
2013-08-21 00:46:00,68.9,67.4,30.07,SSW,211,2.1,3.5,95,0.00,CLR,OVC,0.00,WeatherDisplay:10.37,2013-08-21 04:46:00,
2013-08-21 00:47:00,68.9,67.4,30.07,SSW,211,2.0,3.5,95,0.00,CLR,OVC,0.00,WeatherDisplay:10.37,2013-08-21 04:47:00,
2013-08-21 00:48:00,68.9,67.4,30.07,SSW,211,0.8,2.3,95,0.00,CLR,OVC,0.00,WeatherDisplay:10.37,2013-08-21 04:48:00,
2013-08-21 00:50:00,68.9,67.4,30.07,SSW,211,0.0,2.3,95,0.00,CLR,OVC,0.00,WeatherDisplay:10.37,2013-08-21 04:50:00,
2013-08-21 00:52:00,68.9,67.4,30.07,SSW,211,0.9,1.2,95,0.00,CLR,OVC,0.00,WeatherDisplay:10.37,2013-08-21 04:52:00,
2013-08-21 00:53:00,68.8,67.3,30.07,SSW,211,1.4,2.3,95,0.00,CLR,OVC,0.00,WeatherDisplay:10.37,2013-08-21 04:53:00,
2013-08-21 00:55:00,68.9,67.4,30.07,SSW,211,1.6,2.3,95,0.00,CLR,OVC,0.00,WeatherDisplay:10.37,2013-08-21 04:55:00,
2013-08-21 00:57:00,69.0,67.5,30.07,SSW,211,2.0,3.5,95,0.00,CLR,OVC,0.00,WeatherDisplay:10.37,2013-08-21 04:57:00,
2013-08-21 00:59:00,69.0,67.5,30.07,SSW,211,1.2,2.3,95,0.00,CLR,OVC,0.00,WeatherDisplay:10.37,2013-08-21 04:59:00,
2013-08-21 01:00:00,69.0,67.5,30.07,SSW,211,0.3,2.3,95,0.00,CLR,OVC,0.00,WeatherDisplay:10.37,2013-08-21 05:00:00,
2013-08-21 01:02:00,69.0,67.2,30.07,SSW,211,0.0,0.0,94,0.00,CLR,OVC,0.00,WeatherDisplay:10.37,2013-08-21 05:02:00,
2013-08-21 01:04:00,69.1,67.6,30.07,SSW,211,0.5,2.3,95,0.00,CLR,OVC,0.00,WeatherDisplay:10.37,2013-08-21 05:04:00,
2013-08-21 01:06:00,69.0,67.2,30.07,SSW,211,1.3,2.3,94,0.00,CLR,OVC,0.00,WeatherDisplay:10.37,2013-08-21 05:06:00,
2013-08-21 01:07:00,69.0,67.5,30.07,SSW,211,1.7,3.5,95,0.00,CLR,OVC,0.00,WeatherDisplay:10.37,2013-08-21 05:07:00,
2013-08-21 01:09:00,68.9,67.4,30.07,SSW,211,0.7,2.3,95,0.00,CLR,OVC,0.00,WeatherDisplay:10.37,2013-08-21 05:09:00,
2013-08-21 01:11:00,68.9,67.4,30.07,SSW,211,1.2,3.5,95,0.00,CLR,OVC,0.00,WeatherDisplay:10.37,2013-08-21 05:11:00,
2013-08-21 01:12:00,68.8,67.0,30.07,SSW,211,0.2,3.5,94,0.00,CLR,OVC,0.00,WeatherDisplay:10.37,2013-08-21 05:12:00,
2013-08-21 01:13:00,68.8,67.0,30.07,SSW,211,0.0,0.0,94,0.00,CLR,OVC,0.00,WeatherDisplay:10.37,2013-08-21 05:13:00,
2013-08-21 01:15:00,68.6,66.8,30.07,SSW,211,0.0,0.0,94,0.00,CLR,OVC,0.00,WeatherDisplay:10.37,2013-08-21 05:15:00,
2013-08-21 01:16:00,68.6,66.8,30.07,SSW,211,0.0,0.0,94,0.00,CLR,OVC,0.00,WeatherDisplay:10.37,2013-08-21 05:16:00,
2013-08-21 01:18:00,68.5,53.6,30.07,SSW,211,1.5,2.3,59,0.00,CLR,OVC,0.00,WeatherDisplay:10.37,2013-08-21 05:18:00,
2013-08-21 01:20:00,68.4,53.5,30.07,SSW,211,0.3,2.3,59,0.00,CLR,OVC,0.00,WeatherDisplay:10.37,2013-08-21 05:20:00,
2013-08-21 01:21:00,68.4,53.5,30.07,SSW,211,0.6,2.3,59,0.00,CLR,OVC,0.00,WeatherDisplay:10.37,2013-08-21 05:21:00,
2013-08-21 01:23:00,68.3,53.4,30.07,SSW,211,1.2,2.3,59,0.00,CLR,OVC,0.00,WeatherDisplay:10.37,2013-08-21 05:23:00,
2013-08-21 01:24:00,68.3,53.4,30.07,SSW,211,1.2,2.3,59,0.00,CLR,OVC,0.00,WeatherDisplay:10.37,2013-08-21 05:24:00,
2013-08-21 01:26:00,68.3,66.5,30.07,SSW,211,2.9,3.5,94,0.00,CLR,OVC,0.00,WeatherDisplay:10.37,2013-08-21 05:26:00,
2013-08-21 01:28:00,68.2,66.4,30.07,SSW,211,2.2,3.5,94,0.00,CLR,OVC,0.00,WeatherDisplay:10.37,2013-08-21 05:28:00,
2013-08-21 01:29:00,68.2,66.4,30.07,SSW,211,2.3,3.5,94,0.00,CLR,OVC,0.00,WeatherDisplay:10.37,2013-08-21 05:29:00,
2013-08-21 01:31:00,68.1,66.6,30.07,SSW,211,2.3,3.5,95,0.00,CLR,OVC,0.00,WeatherDisplay:10.37,2013-08-21 05:31:00,
2013-08-21 01:33:00,68.1,66.6,30.07,SSW,211,2.1,3.5,95,0.00,CLR,OVC,0.00,WeatherDisplay:10.37,2013-08-21 05:33:00,
2013-08-21 01:34:00,68.1,66.6,30.07,SSW,211,1.8,3.5,95,0.00,CLR,OVC,0.00,WeatherDisplay:10.37,2013-08-21 05:34:00,
2013-08-21 01:35:00,68.1,66.3,30.08,SSW,211,1.2,3.5,94,0.00,CLR,OVC,0.00,WeatherDisplay:10.37,2013-08-21 05:35:00,
2013-08-21 01:36:00,68.0,66.2,30.08,SSW,211,0.4,2.3,94,0.00,CLR,OVC,0.00,WeatherDisplay:10.37,2013-08-21 05:36:00,
2013-08-21 01:37:00,68.0,66.2,30.07,SSW,211,0.0,2.3,94,0.00,CLR,OVC,0.00,WeatherDisplay:10.37,2013-08-21 05:37:00,
2013-08-21 01:39:00,67.9,66.1,30.08,SSW,211,1.5,2.3,94,0.00,CLR,OVC,0.00,WeatherDisplay:10.37,2013-08-21 05:39:00,
2013-08-21 01:40:00,67.9,66.1,30.08,SSW,211,1.4,2.3,94,0.00,CLR,OVC,0.00,WeatherDisplay:10.37,2013-08-21 05:40:00,
2013-08-21 01:41:00,67.8,66.3,30.08,SSW,211,0.0,1.2,95,0.00,CLR,OVC,0.00,WeatherDisplay:10.37,2013-08-21 05:41:00,
2013-08-21 01:42:00,67.8,66.3,30.08,SSW,211,0.0,0.0,95,0.00,CLR,OVC,0.00,WeatherDisplay:10.37,2013-08-21 05:42:00,
2013-08-21 01:44:00,67.7,66.2,30.08,SSW,211,0.9,1.2,95,0.00,CLR,OVC,0.00,WeatherDisplay:10.37,2013-08-21 05:44:00,
2013-08-21 01:45:00,67.6,66.1,30.08,SSW,211,0.6,2.3,95,0.00,CLR,OVC,0.00,WeatherDisplay:10.37,2013-08-21 05:45:00,
2013-08-21 01:47:00,67.5,66.0,30.08,SSW,211,0.0,1.2,95,0.00,CLR,OVC,0.00,WeatherDisplay:10.37,2013-08-21 05:47:00,
2013-08-21 01:49:00,67.5,66.0,30.08,SSW,211,0.8,2.3,95,0.00,CLR,OVC,0.00,WeatherDisplay:10.37,2013-08-21 05:49:00,
2013-08-21 01:50:00,67.5,66.0,30.07,SSW,211,1.7,2.3,95,0.00,CLR,OVC,0.00,WeatherDisplay:10.37,2013-08-21 05:50:00,
2013-08-21 01:52:00,67.5,66.0,30.08,SSW,211,1.5,3.5,95,0.00,CLR,OVC,0.00,WeatherDisplay:10.37,2013-08-21 05:52:00,
2013-08-21 01:54:00,67.5,66.0,30.08,SSW,211,1.0,2.3,95,0.00,CLR,OVC,0.00,WeatherDisplay:10.37,2013-08-21 05:54:00,
2013-08-21 01:55:00,67.4,66.2,30.08,SSW,211,0.9,2.3,96,0.00,CLR,OVC,0.00,WeatherDisplay:10.37,2013-08-21 05:55:00,
2013-08-21 01:56:00,67.4,65.9,30.08,SSW,211,1.2,2.3,95,0.00,CLR,OVC,0.00,WeatherDisplay:10.37,2013-08-21 05:56:00,
2013-08-21 01:57:00,67.4,65.9,30.08,SSW,211,2.6,3.5,95,0.00,CLR,OVC,0.00,WeatherDisplay:10.37,2013-08-21 05:57:00,
2013-08-21 01:58:00,67.4,65.9,30.08,SSW,211,2.1,3.5,95,0.00,CLR,OVC,0.00,WeatherDisplay:10.37,2013-08-21 05:58:00,
2013-08-21 01:59:00,67.4,66.2,30.08,SSW,211,1.0,3.5,96,0.00,CLR,OVC,0.00,WeatherDisplay:10.37,2013-08-21 05:59:00,
2013-08-21 02:00:00,67.4,65.9,30.08,SSW,211,0.9,2.3,95,0.00,CLR,OVC,0.00,WeatherDisplay:10.37,2013-08-21 06:00:00,
2013-08-21 02:01:00,67.4,66.2,30.08,SSW,211,0.6,2.3,96,0.00,CLR,OVC,0.00,WeatherDisplay:10.37,2013-08-21 06:01:00,
2013-08-21 02:02:00,67.4,66.2,30.08,SSW,211,1.1,2.3,96,0.00,CLR,OVC,0.00,WeatherDisplay:10.37,2013-08-21 06:02:00,
2013-08-21 02:03:00,67.4,66.2,30.08,SSW,211,0.8,2.3,96,0.00,CLR,OVC,0.00,WeatherDisplay:10.37,2013-08-21 06:03:00,
2013-08-21 02:04:00,67.4,66.2,30.08,SSW,211,1.0,1.2,96,0.00,CLR,OVC,0.00,WeatherDisplay:10.37,2013-08-21 06:04:00,
2013-08-21 02:05:00,67.5,66.3,30.08,SSW,211,1.5,2.3,96,0.00,CLR,OVC,0.00,WeatherDisplay:10.37,2013-08-21 06:05:00,
2013-08-21 02:06:00,67.5,66.3,30.08,SSW,211,1.0,2.3,96,0.00,CLR,OVC,0.00,WeatherDisplay:10.37,2013-08-21 06:06:00,
2013-08-21 02:07:00,67.5,66.3,30.08,SSW,211,0.0,2.3,96,0.00,CLR,OVC,0.00,WeatherDisplay:10.37,2013-08-21 06:07:00,
2013-08-21 02:08:00,67.5,66.3,30.08,SSW,211,0.0,0.0,96,0.00,CLR,OVC,0.00,WeatherDisplay:10.37,2013-08-21 06:08:00,
2013-08-21 02:09:00,67.5,66.3,30.08,SSW,211,0.4,1.0,96,0.00,CLR,OVC,0.00,WeatherDisplay:10.37,2013-08-21 06:09:00,
2013-08-21 02:10:00,67.5,66.3,30.08,SSW,211,0.3,1.2,96,0.00,CLR,OVC,0.00,WeatherDisplay:10.37,2013-08-21 06:10:00,
2013-08-21 02:11:00,67.5,66.0,30.08,SSW,211,0.0,0.0,95,0.00,CLR,OVC,0.00,WeatherDisplay:10.37,2013-08-21 06:11:00,
2013-08-21 02:12:00,67.5,66.3,30.08,SSW,211,0.0,0.0,96,0.00,CLR,OVC,0.00,WeatherDisplay:10.37,2013-08-21 06:12:00,
2013-08-21 02:14:00,67.5,66.0,30.08,SSW,211,0.0,0.0,95,0.00,CLR,OVC,0.00,WeatherDisplay:10.37,2013-08-21 06:14:00,
2013-08-21 02:15:00,67.5,66.3,30.08,SSW,211,0.0,0.0,96,0.00,CLR,OVC,0.00,WeatherDisplay:10.37,2013-08-21 06:15:00,
2013-08-21 02:16:00,67.4,66.2,30.08,SSW,211,0.0,0.0,96,0.00,CLR,OVC,0.00,WeatherDisplay:10.37,2013-08-21 06:16:00,
2013-08-21 02:17:00,67.4,66.2,30.08,SSW,211,0.0,0.0,96,0.00,CLR,OVC,0.00,WeatherDisplay:10.37,2013-08-21 06:17:00,
2013-08-21 02:19:00,67.4,66.2,30.08,SSW,211,0.0,0.0,96,0.00,CLR,OVC,0.00,WeatherDisplay:10.37,2013-08-21 06:19:00,
2013-08-21 02:20:00,67.4,66.2,30.08,SSW,211,0.3,1.0,96,0.00,CLR,OVC,0.00,WeatherDisplay:10.37,2013-08-21 06:20:00,
2013-08-21 02:21:00,67.4,65.9,30.08,SSW,211,0.6,1.2,95,0.00,CLR,OVC,0.00,WeatherDisplay:10.37,2013-08-21 06:21:00,
2013-08-21 02:22:00,67.4,65.9,30.08,SSW,211,0.4,1.2,95,0.00,CLR,OVC,0.00,WeatherDisplay:10.37,2013-08-21 06:22:00,
2013-08-21 02:24:00,67.3,65.8,30.08,SSW,211,0.1,1.2,95,0.00,CLR,OVC,0.00,WeatherDisplay:10.37,2013-08-21 06:24:00,
2013-08-21 02:25:00,67.3,66.1,30.08,SSW,211,0.0,1.2,96,0.00,CLR,OVC,0.00,WeatherDisplay:10.37,2013-08-21 06:25:00,
2013-08-21 02:26:00,67.3,66.1,30.08,SSW,211,0.0,0.0,96,0.00,CLR,OVC,0.00,WeatherDisplay:10.37,2013-08-21 06:26:00,
2013-08-21 02:28:00,67.3,66.1,30.08,SSW,211,0.0,0.0,96,0.00,CLR,OVC,0.00,WeatherDisplay:10.37,2013-08-21 06:28:00,
2013-08-21 02:29:00,67.3,66.1,30.08,SSW,211,0.0,0.0,96,0.00,CLR,OVC,0.00,WeatherDisplay:10.37,2013-08-21 06:29:00,
2013-08-21 02:30:00,67.2,66.0,30.08,SSW,211,0.0,0.0,96,0.00,CLR,OVC,0.00,WeatherDisplay:10.37,2013-08-21 06:30:00,
2013-08-21 02:32:00,67.1,65.9,30.08,SSW,211,0.5,1.2,96,0.00,CLR,OVC,0.00,WeatherDisplay:10.37,2013-08-21 06:32:00,
2013-08-21 02:33:00,67.0,65.8,30.08,SSW,211,0.5,1.2,96,0.00,CLR,OVC,0.00,WeatherDisplay:10.37,2013-08-21 06:33:00,
2013-08-21 02:34:00,67.0,65.8,30.08,SSW,211,0.0,0.0,96,0.00,CLR,OVC,0.00,WeatherDisplay:10.37,2013-08-21 06:34:00,
2013-08-21 02:35:00,67.0,65.8,30.08,SSW,211,0.0,1.0,96,0.00,CLR,OVC,0.00,WeatherDisplay:10.37,2013-08-21 06:35:00,
2013-08-21 02:38:00,67.0,65.8,30.07,SSW,211,0.1,0.0,96,0.00,CLR,OVC,0.00,WeatherDisplay:10.37,2013-08-21 06:38:00,
2013-08-21 02:39:00,67.0,65.8,30.08,SSW,211,1.9,3.5,96,0.00,CLR,OVC,0.00,WeatherDisplay:10.37,2013-08-21 06:39:00,
2013-08-21 02:40:00,67.0,65.8,30.08,SSW,211,1.9,3.5,96,0.00,CLR,OVC,0.00,WeatherDisplay:10.37,2013-08-21 06:40:00,
2013-08-21 02:43:00,66.9,65.7,30.08,SSW,211,0.2,1.2,96,0.00,CLR,OVC,0.00,WeatherDisplay:10.37,2013-08-21 06:43:00,
2013-08-21 02:44:00,66.9,65.7,30.07,SSW,211,1.4,3.0,96,0.00,CLR,OVC,0.00,WeatherDisplay:10.37,2013-08-21 06:44:00,
2013-08-21 02:45:00,66.9,65.7,30.08,SSW,211,2.1,3.5,96,0.00,CLR,OVC,0.00,WeatherDisplay:10.37,2013-08-21 06:45:00,
2013-08-21 02:46:00,66.9,65.7,30.08,SSW,211,2.4,3.5,96,0.00,CLR,OVC,0.00,WeatherDisplay:10.37,2013-08-21 06:46:00,
2013-08-21 02:48:00,66.8,65.6,30.08,SSW,211,2.2,3.5,96,0.00,CLR,OVC,0.00,WeatherDisplay:10.37,2013-08-21 06:48:00,
2013-08-21 02:49:00,66.8,65.6,30.08,SSW,211,1.5,3.5,96,0.00,CLR,OVC,0.00,WeatherDisplay:10.37,2013-08-21 06:49:00,
2013-08-21 02:50:00,66.8,65.6,30.08,SSW,211,1.1,2.3,96,0.00,CLR,OVC,0.00,WeatherDisplay:10.37,2013-08-21 06:50:00,
2013-08-21 02:51:00,66.8,65.6,30.08,SSW,211,0.2,2.3,96,0.00,CLR,OVC,0.00,WeatherDisplay:10.37,2013-08-21 06:51:00,
2013-08-21 02:53:00,66.7,65.5,30.08,SSW,211,0.0,0.0,96,0.00,CLR,OVC,0.00,WeatherDisplay:10.37,2013-08-21 06:53:00,
2013-08-21 02:54:00,66.7,65.5,30.08,SSW,211,0.0,0.0,96,0.00,CLR,OVC,0.00,WeatherDisplay:10.37,2013-08-21 06:54:00,
2013-08-21 02:55:00,66.7,65.5,30.08,SSW,211,0.0,0.0,96,0.00,CLR,OVC,0.00,WeatherDisplay:10.37,2013-08-21 06:55:00,
2013-08-21 02:56:00,66.7,65.8,30.08,SSW,211,0.9,3.0,97,0.00,CLR,OVC,0.00,WeatherDisplay:10.37,2013-08-21 06:56:00,
2013-08-21 02:58:00,66.6,65.4,30.08,SSW,211,2.9,3.5,96,0.00,CLR,OVC,0.00,WeatherDisplay:10.37,2013-08-21 06:58:00,
2013-08-21 02:59:00,66.6,65.7,30.08,SSW,211,2.8,3.5,97,0.00,CLR,OVC,0.00,WeatherDisplay:10.37,2013-08-21 06:59:00,
2013-08-21 03:00:00,66.6,65.4,30.08,SSW,211,1.0,3.5,96,0.00,CLR,OVC,0.00,WeatherDisplay:10.37,2013-08-21 07:00:00,
2013-08-21 03:01:00,66.6,65.4,30.08,SSW,211,0.6,2.3,96,0.00,CLR,OVC,0.00,WeatherDisplay:10.37,2013-08-21 07:01:00,
2013-08-21 03:03:00,66.5,65.3,30.09,SSW,211,0.0,0.0,96,0.00,CLR,OVC,0.00,WeatherDisplay:10.37,2013-08-21 07:03:00,
2013-08-21 03:04:00,66.5,65.6,30.08,SSW,211,0.0,0.0,97,0.00,CLR,OVC,0.00,WeatherDisplay:10.37,2013-08-21 07:04:00,
2013-08-21 03:05:00,66.6,65.4,30.08,SSW,211,0.0,0.0,96,0.00,CLR,OVC,0.00,WeatherDisplay:10.37,2013-08-21 07:05:00,
2013-08-21 03:06:00,66.6,65.4,30.08,SSW,211,1.4,3.5,96,0.00,CLR,OVC,0.00,WeatherDisplay:10.37,2013-08-21 07:06:00,
2013-08-21 03:09:00,66.6,65.4,30.08,SSW,211,2.4,3.5,96,0.00,CLR,OVC,0.00,WeatherDisplay:10.37,2013-08-21 07:09:00,
2013-08-21 03:10:00,66.6,65.7,30.08,SSW,211,1.9,3.5,97,0.00,CLR,OVC,0.00,WeatherDisplay:10.37,2013-08-21 07:10:00,
2013-08-21 03:11:00,66.5,65.3,30.08,SSW,211,1.3,2.3,96,0.00,CLR,OVC,0.00,WeatherDisplay:10.37,2013-08-21 07:11:00,
2013-08-21 03:14:00,66.6,65.7,30.08,SSW,211,0.5,2.3,97,0.00,CLR,OVC,0.00,WeatherDisplay:10.37,2013-08-21 07:14:00,
2013-08-21 03:15:00,66.6,65.7,30.08,SSW,211,0.4,2.3,97,0.00,CLR,OVC,0.00,WeatherDisplay:10.37,2013-08-21 07:15:00,
2013-08-21 03:16:00,66.6,65.7,30.08,SSW,211,0.3,2.3,97,0.00,CLR,OVC,0.00,WeatherDisplay:10.37,2013-08-21 07:16:00,
2013-08-21 03:19:00,66.6,65.7,30.08,SSW,211,0.4,2.3,97,0.00,CLR,OVC,0.00,WeatherDisplay:10.37,2013-08-21 07:19:00,
2013-08-21 03:20:00,66.6,65.4,30.08,SSW,211,0.3,1.2,96,0.00,CLR,OVC,0.00,WeatherDisplay:10.37,2013-08-21 07:20:00,
2013-08-21 03:21:00,66.5,65.3,30.08,SSW,211,0.7,1.2,96,0.00,CLR,OVC,0.00,WeatherDisplay:10.37,2013-08-21 07:21:00,
2013-08-21 03:22:00,66.5,65.6,30.08,SSW,211,0.0,0.0,97,0.00,CLR,OVC,0.00,WeatherDisplay:10.37,2013-08-21 07:22:00,
2013-08-21 03:24:00,66.5,65.6,30.08,SSW,211,0.0,0.0,97,0.00,CLR,OVC,0.00,WeatherDisplay:10.37,2013-08-21 07:24:00,
2013-08-21 03:25:00,66.4,65.5,30.08,SSW,211,0.0,0.0,97,0.00,CLR,OVC,0.00,WeatherDisplay:10.37,2013-08-21 07:25:00,
2013-08-21 03:26:00,66.4,65.2,30.08,SSW,211,0.0,0.0,96,0.00,CLR,OVC,0.00,WeatherDisplay:10.37,2013-08-21 07:26:00,
2013-08-21 03:27:00,66.4,65.5,30.08,SSW,211,0.0,0.0,97,0.00,CLR,OVC,0.00,WeatherDisplay:10.37,2013-08-21 07:27:00,
2013-08-21 03:29:00,66.3,65.1,30.08,SSW,211,0.0,0.0,96,0.00,CLR,OVC,0.00,WeatherDisplay:10.37,2013-08-21 07:29:00,
2013-08-21 03:30:00,66.3,65.4,30.08,SSW,211,0.0,0.0,97,0.00,CLR,OVC,0.00,WeatherDisplay:10.37,2013-08-21 07:30:00,
2013-08-21 03:31:00,66.2,65.3,30.08,SSW,211,0.0,0.0,97,0.00,CLR,OVC,0.00,WeatherDisplay:10.37,2013-08-21 07:31:00,
2013-08-21 03:32:00,66.2,65.0,30.08,SSW,211,0.8,1.2,96,0.00,CLR,OVC,0.00,WeatherDisplay:10.37,2013-08-21 07:32:00,
2013-08-21 03:35:00,66.2,65.3,30.08,SSW,211,0.1,1.2,97,0.00,CLR,OVC,0.00,WeatherDisplay:10.37,2013-08-21 07:35:00,
2013-08-21 03:36:00,66.2,65.3,30.08,SSW,211,0.0,1.2,97,0.00,CLR,OVC,0.00,WeatherDisplay:10.37,2013-08-21 07:36:00,
2013-08-21 03:37:00,66.1,65.2,30.08,SSW,211,1.3,2.3,97,0.00,CLR,OVC,0.00,WeatherDisplay:10.37,2013-08-21 07:37:00,
2013-08-21 03:40:00,65.9,65.0,30.08,SSW,211,1.8,2.3,97,0.00,CLR,OVC,0.00,WeatherDisplay:10.37,2013-08-21 07:40:00,
2013-08-21 03:41:00,66.1,65.2,30.08,SSW,211,2.2,3.5,97,0.00,CLR,OVC,0.00,WeatherDisplay:10.37,2013-08-21 07:41:00,
2013-08-21 03:43:00,66.1,65.2,30.08,SSW,211,1.2,3.5,97,0.00,CLR,OVC,0.00,WeatherDisplay:10.37,2013-08-21 07:43:00,
2013-08-21 03:45:00,66.0,65.1,30.08,SSW,211,0.8,2.3,97,0.00,CLR,OVC,0.00,WeatherDisplay:10.37,2013-08-21 07:45:00,
2013-08-21 03:46:00,66.0,65.1,30.08,SSW,211,0.0,1.2,97,0.00,CLR,OVC,0.00,WeatherDisplay:10.37,2013-08-21 07:46:00,
2013-08-21 03:48:00,65.8,64.9,30.08,SSW,211,0.0,0.0,97,0.00,CLR,OVC,0.00,WeatherDisplay:10.37,2013-08-21 07:48:00,
2013-08-21 03:50:00,65.9,65.0,30.08,SSW,211,0.0,0.0,97,0.00,CLR,OVC,0.00,WeatherDisplay:10.37,2013-08-21 07:50:00,
2013-08-21 03:51:00,65.9,65.0,30.08,SSW,211,0.0,0.0,97,0.00,CLR,OVC,0.00,WeatherDisplay:10.37,2013-08-21 07:51:00,
2013-08-21 03:52:00,65.9,65.0,30.08,SSW,211,0.0,0.0,97,0.00,CLR,OVC,0.00,WeatherDisplay:10.37,2013-08-21 07:52:00,
2013-08-21 03:54:00,66.0,65.1,30.08,SSW,211,0.0,0.0,97,0.00,CLR,OVC,0.00,WeatherDisplay:10.37,2013-08-21 07:54:00,
2013-08-21 03:56:00,66.0,65.1,30.08,SSW,211,0.0,0.0,97,0.00,CLR,OVC,0.00,WeatherDisplay:10.37,2013-08-21 07:56:00,
2013-08-21 03:57:00,66.0,65.1,30.08,SSW,211,0.0,0.0,97,0.00,CLR,OVC,0.00,WeatherDisplay:10.37,2013-08-21 07:57:00,
2013-08-21 03:59:00,66.0,65.1,30.08,SSW,211,2.0,4.0,97,0.00,CLR,OVC,0.00,WeatherDisplay:10.37,2013-08-21 07:59:00,
2013-08-21 04:01:00,66.0,65.1,30.08,SSW,211,3.2,3.5,97,0.00,CLR,OVC,0.00,WeatherDisplay:10.37,2013-08-21 08:01:00,
2013-08-21 04:02:00,66.0,65.1,30.08,SSW,211,2.7,3.5,97,0.00,CLR,OVC,0.00,WeatherDisplay:10.37,2013-08-21 08:02:00,
2013-08-21 04:04:00,65.9,65.0,30.08,SSW,211,0.5,2.3,97,0.00,CLR,OVC,0.00,WeatherDisplay:10.37,2013-08-21 08:04:00,
2013-08-21 04:06:00,65.9,65.3,30.08,SSW,211,0.8,2.3,98,0.00,CLR,OVC,0.00,WeatherDisplay:10.37,2013-08-21 08:06:00,
2013-08-21 04:07:00,66.0,65.1,30.08,SSW,211,1.1,2.3,97,0.00,CLR,OVC,0.00,WeatherDisplay:10.37,2013-08-21 08:07:00,
2013-08-21 04:09:00,66.0,65.4,30.08,SSW,211,0.8,2.3,98,0.00,CLR,OVC,0.00,WeatherDisplay:10.37,2013-08-21 08:09:00,
2013-08-21 04:11:00,66.0,65.4,30.08,SSW,211,1.0,2.3,98,0.00,CLR,OVC,0.00,WeatherDisplay:10.37,2013-08-21 08:11:00,
2013-08-21 04:12:00,66.0,65.1,30.08,SSW,211,0.5,2.3,97,0.00,CLR,OVC,0.00,WeatherDisplay:10.37,2013-08-21 08:12:00,
2013-08-21 04:14:00,66.1,65.2,30.08,SSW,211,0.3,2.0,97,0.00,CLR,OVC,0.00,WeatherDisplay:10.37,2013-08-21 08:14:00,
2013-08-21 04:16:00,66.1,65.2,30.08,SSW,211,0.4,1.2,97,0.00,CLR,OVC,0.00,WeatherDisplay:10.37,2013-08-21 08:16:00,
2013-08-21 04:17:00,66.1,65.2,30.08,SSW,211,1.2,2.3,97,0.00,CLR,OVC,0.00,WeatherDisplay:10.37,2013-08-21 08:17:00,
2013-08-21 04:20:00,66.0,65.1,30.08,SSW,211,1.2,3.5,97,0.00,CLR,OVC,0.00,WeatherDisplay:10.37,2013-08-21 08:20:00,
2013-08-21 04:21:00,66.0,65.1,30.08,SSW,211,0.1,1.2,97,0.00,CLR,OVC,0.00,WeatherDisplay:10.37,2013-08-21 08:21:00,
2013-08-21 04:22:00,66.0,65.1,30.08,SSW,211,0.0,0.0,97,0.00,CLR,OVC,0.00,WeatherDisplay:10.37,2013-08-21 08:22:00,
2013-08-21 04:23:00,66.0,65.1,30.09,SSW,211,0.0,0.0,97,0.00,CLR,OVC,0.00,WeatherDisplay:10.37,2013-08-21 08:23:00,
2013-08-21 04:25:00,66.0,65.1,30.08,SSW,211,2.2,3.5,97,0.00,CLR,OVC,0.00,WeatherDisplay:10.37,2013-08-21 08:25:00,
2013-08-21 04:26:00,65.9,65.0,30.08,SSW,211,0.1,2.3,97,0.00,CLR,OVC,0.00,WeatherDisplay:10.37,2013-08-21 08:26:00,
2013-08-21 04:27:00,65.9,65.0,30.08,SSW,211,0.4,1.2,97,0.00,CLR,OVC,0.00,WeatherDisplay:10.37,2013-08-21 08:27:00,
2013-08-21 04:28:00,65.9,65.0,30.08,SSW,211,0.5,1.2,97,0.00,CLR,OVC,0.00,WeatherDisplay:10.37,2013-08-21 08:28:00,
2013-08-21 04:30:00,65.9,65.0,30.09,SSW,211,1.4,2.0,97,0.00,CLR,OVC,0.00,WeatherDisplay:10.37,2013-08-21 08:30:00,
2013-08-21 04:32:00,65.7,64.8,30.08,SSW,211,1.9,2.3,97,0.00,CLR,OVC,0.00,WeatherDisplay:10.37,2013-08-21 08:32:00,
2013-08-21 04:33:00,65.6,64.7,30.08,SSW,211,1.2,3.0,97,0.00,CLR,OVC,0.00,WeatherDisplay:10.37,2013-08-21 08:33:00,
2013-08-21 04:35:00,65.6,64.7,30.08,SSW,211,0.1,3.5,97,0.00,CLR,OVC,0.00,WeatherDisplay:10.37,2013-08-21 08:35:00,
2013-08-21 04:37:00,65.6,64.7,30.08,SSW,211,1.0,2.3,97,0.00,CLR,OVC,0.00,WeatherDisplay:10.37,2013-08-21 08:37:00,
2013-08-21 04:38:00,65.6,64.7,30.08,SSW,211,0.8,2.3,97,0.00,CLR,OVC,0.00,WeatherDisplay:10.37,2013-08-21 08:38:00,
2013-08-21 04:40:00,65.5,64.9,30.08,SSW,211,1.5,2.3,98,0.00,CLR,OVC,0.00,WeatherDisplay:10.37,2013-08-21 08:40:00,
2013-08-21 04:42:00,65.5,64.6,30.09,SSW,211,2.3,3.5,97,0.00,CLR,OVC,0.00,WeatherDisplay:10.37,2013-08-21 08:42:00,
2013-08-21 04:43:00,65.5,64.9,30.08,SSW,211,2.6,3.5,98,0.00,CLR,OVC,0.00,WeatherDisplay:10.37,2013-08-21 08:43:00,
2013-08-21 04:45:00,65.5,64.9,30.08,SSW,211,3.1,3.5,98,0.00,CLR,OVC,0.00,WeatherDisplay:10.37,2013-08-21 08:45:00,
2013-08-21 04:47:00,65.5,64.9,30.09,SSW,211,3.3,3.5,98,0.00,CLR,OVC,0.00,WeatherDisplay:10.37,2013-08-21 08:47:00,
2013-08-21 04:48:00,65.5,64.9,30.09,SSW,211,3.2,3.5,98,0.00,CLR,OVC,0.00,WeatherDisplay:10.37,2013-08-21 08:48:00,
2013-08-21 04:49:00,65.5,64.9,30.08,SSW,211,3.1,3.5,98,0.00,CLR,OVC,0.00,WeatherDisplay:10.37,2013-08-21 08:49:00,
2013-08-21 04:50:00,65.6,65.0,30.08,SSW,211,3.7,4.6,98,0.00,CLR,OVC,0.00,WeatherDisplay:10.37,2013-08-21 08:50:00,
2013-08-21 04:52:00,65.7,65.1,30.09,SSW,211,2.0,3.5,98,0.00,CLR,OVC,0.00,WeatherDisplay:10.37,2013-08-21 08:52:00,
2013-08-21 04:53:00,65.7,65.1,30.08,SSW,211,2.5,3.5,98,0.00,CLR,OVC,0.00,WeatherDisplay:10.37,2013-08-21 08:53:00,
2013-08-21 04:54:00,65.8,65.2,30.08,SSW,211,2.5,3.5,98,0.00,CLR,OVC,0.00,WeatherDisplay:10.37,2013-08-21 08:54:00,
2013-08-21 04:56:00,65.8,65.2,30.09,SSW,211,2.5,3.5,98,0.00,CLR,OVC,0.00,WeatherDisplay:10.37,2013-08-21 08:56:00,
2013-08-21 04:57:00,65.8,65.2,30.09,SSW,211,2.4,3.5,98,0.00,CLR,OVC,0.00,WeatherDisplay:10.37,2013-08-21 08:57:00,
2013-08-21 04:58:00,65.8,64.9,30.09,SSW,211,2.4,3.5,97,0.00,CLR,OVC,0.00,WeatherDisplay:10.37,2013-08-21 08:58:00,
2013-08-21 04:59:00,65.8,65.2,30.08,SSW,211,2.6,3.5,98,0.00,CLR,OVC,0.00,WeatherDisplay:10.37,2013-08-21 08:59:00,
2013-08-21 05:01:00,65.8,65.2,30.09,SSW,211,3.6,5.0,98,0.00,CLR,OVC,0.00,WeatherDisplay:10.37,2013-08-21 09:01:00,
2013-08-21 05:02:00,65.8,64.9,30.09,SSW,211,3.9,4.6,97,0.00,CLR,OVC,0.00,WeatherDisplay:10.37,2013-08-21 09:02:00,
2013-08-21 05:03:00,65.9,65.0,30.09,SSW,211,3.4,4.6,97,0.00,CLR,OVC,0.00,WeatherDisplay:10.37,2013-08-21 09:03:00,
2013-08-21 05:04:00,65.9,65.0,30.09,SSW,211,3.1,5.0,97,0.00,CLR,OVC,0.00,WeatherDisplay:10.37,2013-08-21 09:04:00,
2013-08-21 05:06:00,66.1,65.5,30.09,SSW,205,4.9,6.9,98,0.00,CLR,OVC,0.00,WeatherDisplay:10.37,2013-08-21 09:06:00,
2013-08-21 05:07:00,66.3,65.7,30.09,SSW,205,2.9,6.9,98,0.00,CLR,OVC,0.00,WeatherDisplay:10.37,2013-08-21 09:07:00,
2013-08-21 05:08:00,66.3,65.7,30.08,SSW,205,2.7,3.5,98,0.00,CLR,OVC,0.00,WeatherDisplay:10.37,2013-08-21 09:08:00,
2013-08-21 05:09:00,66.3,65.4,30.09,SSW,205,2.5,5.0,97,0.00,CLR,OVC,0.00,WeatherDisplay:10.37,2013-08-21 09:09:00,
2013-08-21 05:11:00,66.7,65.8,30.09,SSW,205,2.3,3.5,97,0.00,CLR,OVC,0.00,WeatherDisplay:10.37,2013-08-21 09:11:00,
2013-08-21 05:12:00,66.7,65.8,30.09,SSW,205,1.8,3.5,97,0.00,CLR,OVC,0.00,WeatherDisplay:10.37,2013-08-21 09:12:00,
2013-08-21 05:14:00,66.8,65.9,30.09,SSW,205,1.7,3.5,97,0.00,CLR,OVC,0.00,WeatherDisplay:10.37,2013-08-21 09:14:00,
2013-08-21 05:15:00,66.8,65.6,30.09,SSW,205,2.1,3.0,96,0.00,CLR,OVC,0.00,WeatherDisplay:10.37,2013-08-21 09:15:00,
2013-08-21 05:16:00,66.8,65.6,30.09,SSW,205,2.2,3.5,96,0.00,CLR,OVC,0.00,WeatherDisplay:10.37,2013-08-21 09:16:00,
2013-08-21 05:17:00,66.8,65.6,30.09,SSW,205,2.8,5.0,96,0.00,CLR,OVC,0.00,WeatherDisplay:10.37,2013-08-21 09:17:00,
2013-08-21 05:19:00,66.7,65.5,30.09,SSW,205,2.5,4.0,96,0.00,CLR,OVC,0.00,WeatherDisplay:10.37,2013-08-21 09:19:00,
2013-08-21 05:20:00,66.7,65.5,30.09,SSW,205,2.6,3.5,96,0.00,CLR,OVC,0.00,WeatherDisplay:10.37,2013-08-21 09:20:00,
2013-08-21 05:21:00,66.6,65.4,30.09,SSW,205,0.7,3.5,96,0.00,CLR,OVC,0.00,WeatherDisplay:10.37,2013-08-21 09:21:00,
2013-08-21 05:23:00,66.6,65.4,30.09,SSW,205,0.2,1.0,96,0.00,CLR,OVC,0.00,WeatherDisplay:10.37,2013-08-21 09:23:00,
2013-08-21 05:24:00,66.3,64.8,30.09,SSW,205,1.6,3.5,95,0.00,CLR,OVC,0.00,WeatherDisplay:10.37,2013-08-21 09:24:00,
2013-08-21 05:25:00,66.6,65.4,30.09,SSW,205,2.2,3.5,96,0.00,CLR,OVC,0.00,WeatherDisplay:10.37,2013-08-21 09:25:00,
2013-08-21 05:26:00,66.5,65.0,30.09,SSW,205,1.3,3.5,95,0.00,CLR,OVC,0.00,WeatherDisplay:10.37,2013-08-21 09:26:00,
2013-08-21 05:27:00,66.3,64.8,30.09,SSW,205,0.5,2.3,95,0.00,CLR,OVC,0.00,WeatherDisplay:10.37,2013-08-21 09:27:00,
2013-08-21 05:28:00,66.2,64.7,30.09,SSW,205,0.3,2.3,95,0.00,CLR,OVC,0.00,WeatherDisplay:10.37,2013-08-21 09:28:00,
2013-08-21 05:29:00,66.1,64.6,30.09,SSW,205,0.4,1.2,95,0.00,CLR,OVC,0.00,WeatherDisplay:10.37,2013-08-21 09:29:00,
2013-08-21 05:30:00,66.1,64.9,30.09,SSW,205,0.6,2.3,96,0.00,CLR,OVC,0.00,WeatherDisplay:10.37,2013-08-21 09:30:00,
2013-08-21 05:31:00,66.0,64.8,30.09,SSW,205,0.0,0.0,96,0.00,CLR,OVC,0.00,WeatherDisplay:10.37,2013-08-21 09:31:00,
2013-08-21 05:32:00,66.0,64.8,30.10,SSW,205,0.0,0.0,96,0.00,CLR,OVC,0.00,WeatherDisplay:10.37,2013-08-21 09:32:00,
2013-08-21 05:33:00,65.9,64.7,30.09,SSW,205,0.0,1.2,96,0.00,CLR,OVC,0.00,WeatherDisplay:10.37,2013-08-21 09:33:00,
2013-08-21 05:34:00,65.8,64.6,30.09,SSW,205,0.0,1.2,96,0.00,CLR,OVC,0.00,WeatherDisplay:10.37,2013-08-21 09:34:00,
2013-08-21 05:35:00,65.8,64.6,30.10,SSW,205,0.0,0.0,96,0.00,CLR,OVC,0.00,WeatherDisplay:10.37,2013-08-21 09:35:00,
2013-08-21 05:36:00,65.8,64.6,30.10,SSW,205,0.5,1.2,96,0.00,CLR,OVC,0.00,WeatherDisplay:10.37,2013-08-21 09:36:00,
2013-08-21 05:37:00,65.7,64.5,30.09,SSW,205,0.5,2.3,96,0.00,CLR,OVC,0.00,WeatherDisplay:10.37,2013-08-21 09:37:00,
2013-08-21 05:38:00,65.7,64.5,30.09,SSW,205,0.0,1.2,96,0.00,CLR,OVC,0.00,WeatherDisplay:10.37,2013-08-21 09:38:00,
2013-08-21 05:39:00,65.6,64.4,30.09,SSW,205,0.0,0.0,96,0.00,CLR,OVC,0.00,WeatherDisplay:10.37,2013-08-21 09:39:00,
2013-08-21 05:40:00,65.6,64.4,30.10,SSW,205,0.0,0.0,96,0.00,CLR,OVC,0.00,WeatherDisplay:10.37,2013-08-21 09:40:00,
2013-08-21 05:41:00,65.6,64.4,30.09,SSW,205,0.0,0.0,96,0.00,CLR,OVC,0.00,WeatherDisplay:10.37,2013-08-21 09:41:00,
2013-08-21 05:43:00,65.5,64.3,30.09,SSW,205,0.0,0.0,96,0.00,CLR,OVC,0.00,WeatherDisplay:10.37,2013-08-21 09:43:00,
2013-08-21 05:44:00,65.5,64.3,30.10,SSW,205,0.6,2.3,96,0.00,CLR,OVC,0.00,WeatherDisplay:10.37,2013-08-21 09:44:00,
2013-08-21 05:45:00,65.6,64.4,30.10,SSW,205,0.2,1.2,96,0.00,CLR,OVC,0.00,WeatherDisplay:10.37,2013-08-21 09:45:00,
2013-08-21 05:47:00,65.5,64.3,30.10,SSW,205,0.1,1.2,96,0.00,CLR,OVC,0.00,WeatherDisplay:10.37,2013-08-21 09:47:00,
2013-08-21 05:48:00,65.5,64.3,30.10,SSW,205,0.0,0.0,96,0.00,CLR,OVC,0.00,WeatherDisplay:10.37,2013-08-21 09:48:00,
2013-08-21 05:50:00,65.4,64.2,30.10,SSW,205,0.4,1.0,96,0.00,CLR,OVC,0.00,WeatherDisplay:10.37,2013-08-21 09:50:00,
2013-08-21 05:52:00,65.3,64.1,30.10,SSW,205,1.6,3.5,96,0.00,CLR,OVC,0.00,WeatherDisplay:10.37,2013-08-21 09:52:00,
2013-08-21 05:53:00,65.3,64.4,30.10,SSW,205,0.3,2.3,97,0.00,CLR,OVC,0.00,WeatherDisplay:10.37,2013-08-21 09:53:00,
2013-08-21 05:54:00,65.3,64.1,30.10,SSW,205,0.0,2.3,96,0.00,CLR,OVC,0.00,WeatherDisplay:10.37,2013-08-21 09:54:00,
2013-08-21 05:55:00,65.2,64.3,30.10,SSW,205,0.1,1.0,97,0.00,CLR,OVC,0.00,WeatherDisplay:10.37,2013-08-21 09:55:00,
2013-08-21 05:57:00,65.2,64.3,30.10,SSW,205,0.0,1.2,97,0.00,CLR,OVC,0.00,WeatherDisplay:10.37,2013-08-21 09:57:00,
2013-08-21 05:58:00,65.2,64.0,30.10,SSW,205,0.0,0.0,96,0.00,CLR,OVC,0.00,WeatherDisplay:10.37,2013-08-21 09:58:00,
2013-08-21 05:59:00,65.1,64.2,30.10,SSW,205,0.0,0.0,97,0.00,CLR,OVC,0.00,WeatherDisplay:10.37,2013-08-21 09:59:00,
2013-08-21 06:00:00,65.0,64.1,30.10,SSW,205,0.2,1.0,97,0.00,CLR,OVC,0.00,WeatherDisplay:10.37,2013-08-21 10:00:00,
2013-08-21 06:01:00,65.3,64.4,30.10,SSW,205,0.2,1.2,97,0.00,CLR,OVC,0.00,WeatherDisplay:10.37,2013-08-21 10:01:00,
2013-08-21 06:03:00,65.2,64.3,30.10,SSW,205,2.3,3.5,97,0.00,CLR,OVC,0.00,WeatherDisplay:10.37,2013-08-21 10:03:00,
2013-08-21 06:04:00,65.2,64.3,30.10,SSW,205,2.0,3.5,97,0.00,CLR,OVC,0.00,WeatherDisplay:10.37,2013-08-21 10:04:00,
2013-08-21 06:05:00,65.2,64.3,30.10,SSW,205,2.0,3.0,97,0.00,CLR,OVC,0.00,WeatherDisplay:10.37,2013-08-21 10:05:00,
2013-08-21 06:07:00,64.9,64.0,30.10,SSW,205,2.1,3.5,97,0.00,CLR,OVC,0.00,WeatherDisplay:10.37,2013-08-21 10:07:00,
2013-08-21 06:08:00,64.9,64.0,30.10,SSW,205,2.0,3.5,97,0.00,CLR,OVC,0.00,WeatherDisplay:10.37,2013-08-21 10:08:00,
2013-08-21 06:09:00,64.9,64.0,30.10,SSW,205,2.2,3.5,97,0.00,CLR,OVC,0.00,WeatherDisplay:10.37,2013-08-21 10:09:00,
2013-08-21 06:10:00,64.9,64.0,30.10,SSW,205,2.6,3.5,97,0.00,CLR,OVC,0.00,WeatherDisplay:10.37,2013-08-21 10:10:00,
2013-08-21 06:13:00,64.9,64.0,30.10,SSW,205,2.4,4.6,97,0.00,CLR,OVC,0.00,WeatherDisplay:10.37,2013-08-21 10:13:00,
2013-08-21 06:15:00,64.9,64.0,30.10,SSW,205,1.8,3.5,97,0.00,CLR,OVC,0.00,WeatherDisplay:10.37,2013-08-21 10:15:00,
2013-08-21 06:18:00,64.9,64.0,30.10,SSW,205,0.7,1.2,97,0.00,CLR,OVC,0.00,WeatherDisplay:10.37,2013-08-21 10:18:00,
2013-08-21 06:20:00,64.9,64.0,30.11,SSW,205,1.0,3.0,97,0.00,CLR,OVC,0.00,WeatherDisplay:10.37,2013-08-21 10:20:00,
2013-08-21 06:23:00,64.8,63.9,30.10,SSW,205,2.6,3.5,97,0.00,CLR,OVC,0.00,WeatherDisplay:10.37,2013-08-21 10:23:00,
2013-08-21 06:24:00,64.9,64.0,30.10,SSW,205,2.8,3.5,97,0.00,CLR,OVC,0.00,WeatherDisplay:10.37,2013-08-21 10:24:00,
2013-08-21 06:25:00,64.9,64.3,30.10,SSW,205,3.3,3.5,98,0.00,CLR,OVC,0.00,WeatherDisplay:10.37,2013-08-21 10:25:00,
2013-08-21 06:26:00,64.9,64.3,30.10,SSW,205,3.0,3.5,98,0.00,CLR,OVC,0.00,WeatherDisplay:10.37,2013-08-21 10:26:00,
2013-08-21 06:28:00,65.0,64.1,30.10,SSW,205,2.7,3.5,97,0.00,CLR,OVC,0.00,WeatherDisplay:10.37,2013-08-21 10:28:00,
2013-08-21 06:29:00,65.0,64.1,30.10,SSW,205,2.4,3.5,97,0.00,CLR,OVC,0.00,WeatherDisplay:10.37,2013-08-21 10:29:00,
2013-08-21 06:30:00,65.0,64.4,30.10,SSW,205,1.9,3.5,98,0.00,CLR,OVC,0.00,WeatherDisplay:10.37,2013-08-21 10:30:00,
2013-08-21 06:31:00,65.0,64.4,30.10,SSW,205,1.4,3.5,98,0.00,CLR,OVC,0.00,WeatherDisplay:10.37,2013-08-21 10:31:00,
2013-08-21 06:34:00,65.0,64.1,30.10,SSW,205,0.1,2.0,97,0.00,CLR,OVC,0.00,WeatherDisplay:10.37,2013-08-21 10:34:00,
2013-08-21 06:35:00,65.0,64.4,30.10,SSW,205,1.5,2.3,98,0.00,CLR,OVC,0.00,WeatherDisplay:10.37,2013-08-21 10:35:00,
2013-08-21 06:36:00,65.0,64.1,30.10,SSW,205,1.8,2.3,97,0.00,CLR,OVC,0.00,WeatherDisplay:10.37,2013-08-21 10:36:00,
2013-08-21 06:39:00,65.0,64.4,30.10,SSW,205,2.1,3.5,98,0.00,CLR,OVC,0.00,WeatherDisplay:10.37,2013-08-21 10:39:00,
2013-08-21 06:40:00,64.9,64.3,30.10,SSW,205,2.4,3.5,98,0.00,CLR,OVC,0.00,WeatherDisplay:10.37,2013-08-21 10:40:00,
2013-08-21 06:41:00,64.9,64.0,30.10,SSW,205,2.1,3.5,97,0.00,CLR,OVC,0.00,WeatherDisplay:10.37,2013-08-21 10:41:00,
2013-08-21 06:44:00,64.9,64.0,30.10,SSW,205,1.1,2.3,97,0.00,CLR,OVC,0.00,WeatherDisplay:10.37,2013-08-21 10:44:00,
2013-08-21 06:45:00,64.9,64.0,30.10,SSW,205,1.1,2.3,97,0.00,CLR,OVC,0.00,WeatherDisplay:10.37,2013-08-21 10:45:00,
2013-08-21 06:46:00,64.9,64.0,30.10,SSW,205,0.7,2.3,97,0.00,CLR,OVC,0.00,WeatherDisplay:10.37,2013-08-21 10:46:00,
2013-08-21 06:50:00,64.9,64.3,30.10,SSW,205,0.2,2.0,98,0.00,CLR,OVC,0.00,WeatherDisplay:10.37,2013-08-21 10:50:00,
2013-08-21 06:51:00,65.0,64.1,30.10,SSW,205,0.7,2.3,97,0.00,CLR,OVC,0.00,WeatherDisplay:10.37,2013-08-21 10:51:00,
2013-08-21 06:55:00,65.0,64.1,30.10,SSW,205,2.0,5.0,97,0.00,CLR,OVC,0.00,WeatherDisplay:10.37,2013-08-21 10:55:00,
2013-08-21 06:56:00,65.1,64.5,30.11,SSW,199,4.4,6.9,98,0.00,CLR,OVC,0.00,WeatherDisplay:10.37,2013-08-21 10:56:00,
2013-08-21 07:00:00,65.3,64.7,30.11,SSW,199,2.2,4.6,98,0.00,CLR,OVC,0.00,WeatherDisplay:10.37,2013-08-21 11:00:00,
2013-08-21 07:01:00,65.4,64.8,30.10,SSW,199,0.8,3.5,98,0.00,CLR,OVC,0.00,WeatherDisplay:10.37,2013-08-21 11:01:00,
2013-08-21 07:02:00,65.4,64.8,30.10,SSW,199,0.4,3.5,98,0.00,CLR,OVC,0.00,WeatherDisplay:10.37,2013-08-21 11:02:00,
2013-08-21 07:05:00,65.5,64.9,30.11,SSW,199,0.0,1.2,98,0.00,CLR,OVC,0.00,WeatherDisplay:10.37,2013-08-21 11:05:00,
2013-08-21 07:06:00,65.4,64.5,30.10,SSW,199,0.1,1.2,97,0.00,CLR,OVC,0.00,WeatherDisplay:10.37,2013-08-21 11:06:00,
2013-08-21 07:08:00,65.5,64.9,30.11,SSW,199,0.6,1.2,98,0.00,CLR,OVC,0.00,WeatherDisplay:10.37,2013-08-21 11:08:00,
2013-08-21 07:10:00,65.5,64.9,30.11,SSW,199,1.0,2.3,98,0.00,CLR,OVC,0.00,WeatherDisplay:10.37,2013-08-21 11:10:00,
2013-08-21 07:11:00,65.6,65.0,30.11,SSW,199,0.8,2.3,98,0.00,CLR,OVC,0.00,WeatherDisplay:10.37,2013-08-21 11:11:00,
2013-08-21 07:13:00,65.6,64.7,30.11,SSW,199,1.4,2.3,97,0.00,CLR,OVC,0.00,WeatherDisplay:10.37,2013-08-21 11:13:00,
2013-08-21 07:15:00,65.7,65.1,30.10,SSW,200,3.0,6.0,98,0.00,CLR,OVC,0.00,WeatherDisplay:10.37,2013-08-21 11:15:00,
2013-08-21 07:16:00,65.7,65.1,30.11,SSW,200,3.6,5.8,98,0.00,CLR,OVC,0.00,WeatherDisplay:10.37,2013-08-21 11:16:00,
2013-08-21 07:18:00,65.8,65.2,30.11,SSW,201,3.9,4.6,98,0.00,CLR,OVC,0.00,WeatherDisplay:10.37,2013-08-21 11:18:00,
2013-08-21 07:20:00,66.0,65.4,30.11,SSW,201,3.7,4.6,98,0.00,CLR,OVC,0.00,WeatherDisplay:10.37,2013-08-21 11:20:00,
2013-08-21 07:21:00,66.0,65.4,30.11,SSW,201,3.6,6.9,98,0.00,CLR,OVC,0.00,WeatherDisplay:10.37,2013-08-21 11:21:00,
2013-08-21 07:22:00,66.2,65.6,30.11,SSW,201,3.4,4.6,98,0.00,CLR,OVC,0.00,WeatherDisplay:10.37,2013-08-21 11:22:00,
2013-08-21 07:23:00,66.2,65.6,30.11,SSW,201,3.5,4.6,98,0.00,CLR,OVC,0.00,WeatherDisplay:10.37,2013-08-21 11:23:00,
2013-08-21 07:25:00,66.4,65.8,30.11,SSW,205,4.8,6.0,98,0.00,CLR,OVC,0.00,WeatherDisplay:10.37,2013-08-21 11:25:00,
2013-08-21 07:26:00,66.5,65.9,30.11,SSW,206,4.7,8.1,98,0.00,CLR,OVC,0.00,WeatherDisplay:10.37,2013-08-21 11:26:00,
2013-08-21 07:27:00,66.5,65.9,30.11,SSW,204,4.0,8.1,98,0.00,CLR,OVC,0.00,WeatherDisplay:10.37,2013-08-21 11:27:00,
2013-08-21 07:28:00,66.7,66.1,30.11,SSW,202,4.3,6.9,98,0.00,CLR,OVC,0.00,WeatherDisplay:10.37,2013-08-21 11:28:00,
2013-08-21 07:30:00,66.9,66.3,30.11,SSW,203,4.8,5.8,98,0.00,CLR,OVC,0.00,WeatherDisplay:10.37,2013-08-21 11:30:00,
2013-08-21 07:32:00,67.0,66.4,30.11,SSW,203,3.7,5.8,98,0.00,CLR,OVC,0.00,WeatherDisplay:10.37,2013-08-21 11:32:00,
2013-08-21 07:33:00,67.2,66.6,30.11,SSW,202,4.7,5.8,98,0.00,CLR,OVC,0.00,WeatherDisplay:10.37,2013-08-21 11:33:00,
2013-08-21 07:36:00,67.5,66.9,30.11,SSW,202,4.0,4.6,98,0.00,CLR,OVC,0.00,WeatherDisplay:10.37,2013-08-21 11:36:00,
2013-08-21 07:37:00,67.6,66.7,30.11,SSW,204,3.6,5.0,97,0.00,CLR,OVC,0.00,WeatherDisplay:10.37,2013-08-21 11:37:00,
2013-08-21 07:38:00,67.8,66.9,30.11,SSW,204,3.7,5.8,97,0.00,CLR,OVC,0.00,WeatherDisplay:10.37,2013-08-21 11:38:00,
2013-08-21 07:41:00,68.0,66.8,30.11,SW,217,5.7,5.8,96,0.00,CLR,OVC,0.00,WeatherDisplay:10.37,2013-08-21 11:41:00,
2013-08-21 07:42:00,68.1,66.9,30.11,SSW,213,4.3,9.2,96,0.00,CLR,OVC,0.00,WeatherDisplay:10.37,2013-08-21 11:42:00,
2013-08-21 07:43:00,68.3,67.1,30.11,SSW,209,4.7,6.9,96,0.00,CLR,OVC,0.00,WeatherDisplay:10.37,2013-08-21 11:43:00,
2013-08-21 07:46:00,68.6,67.4,30.11,SSW,200,5.1,8.1,96,0.00,CLR,OVC,0.00,WeatherDisplay:10.37,2013-08-21 11:46:00,
2013-08-21 07:47:00,68.6,67.4,30.11,SSW,204,5.6,9.0,96,0.00,CLR,OVC,0.00,WeatherDisplay:10.37,2013-08-21 11:47:00,
2013-08-21 07:49:00,68.8,67.3,30.12,SW,214,4.5,9.2,95,0.00,CLR,OVC,0.00,WeatherDisplay:10.37,2013-08-21 11:49:00,
2013-08-21 07:51:00,69.0,67.5,30.11,SSW,210,6.4,10.4,95,0.00,CLR,OVC,0.00,WeatherDisplay:10.37,2013-08-21 11:51:00,
2013-08-21 07:52:00,69.0,67.5,30.11,SSW,211,6.6,10.4,95,0.00,CLR,OVC,0.00,WeatherDisplay:10.37,2013-08-21 11:52:00,
2013-08-21 07:53:00,69.1,67.6,30.12,SSW,211,5.6,10.4,95,0.00,CLR,OVC,0.00,WeatherDisplay:10.37,2013-08-21 11:53:00,
2013-08-21 07:54:00,69.1,67.3,30.11,SSW,213,5.6,8.1,94,0.00,CLR,OVC,0.00,WeatherDisplay:10.37,2013-08-21 11:54:00,
2013-08-21 07:57:00,69.3,67.5,30.11,SW,215,4.8,5.8,94,0.00,CLR,OVC,0.00,WeatherDisplay:10.37,2013-08-21 11:57:00,
2013-08-21 07:58:00,69.3,67.5,30.11,SW,215,4.7,6.9,94,0.00,CLR,OVC,0.00,WeatherDisplay:10.37,2013-08-21 11:58:00,
2013-08-21 07:59:00,69.3,67.5,30.11,SSW,197,5.7,9.2,94,0.00,CLR,OVC,0.00,WeatherDisplay:10.37,2013-08-21 11:59:00,
2013-08-21 08:02:00,69.6,67.5,30.11,South,176,4.6,11.0,93,0.00,CLR,OVC,0.00,WeatherDisplay:10.37,2013-08-21 12:02:00,
2013-08-21 08:03:00,69.6,67.5,30.11,South,181,7.9,14.0,93,0.00,CLR,OVC,0.00,WeatherDisplay:10.37,2013-08-21 12:03:00,
2013-08-21 08:04:00,69.7,67.3,30.11,South,173,8.3,13.8,92,0.00,CLR,OVC,0.00,WeatherDisplay:10.37,2013-08-21 12:04:00,
2013-08-21 08:07:00,69.9,67.5,30.11,South,190,4.0,8.0,92,0.00,CLR,OVC,0.00,WeatherDisplay:10.37,2013-08-21 12:07:00,
2013-08-21 08:08:00,70.0,67.6,30.11,South,184,5.1,8.1,92,0.00,CLR,OVC,0.00,WeatherDisplay:10.37,2013-08-21 12:08:00,
2013-08-21 08:09:00,70.0,67.6,30.11,South,185,4.5,8.1,92,0.00,CLR,OVC,0.00,WeatherDisplay:10.37,2013-08-21 12:09:00,
2013-08-21 08:12:00,70.2,67.4,30.11,South,186,7.3,10.4,91,0.00,CLR,OVC,0.00,WeatherDisplay:10.37,2013-08-21 12:12:00,
2013-08-21 08:13:00,70.3,67.5,30.11,South,172,5.1,8.1,91,0.00,CLR,OVC,0.00,WeatherDisplay:10.37,2013-08-21 12:13:00,
2013-08-21 08:14:00,70.3,67.5,30.11,South,172,4.0,8.1,91,0.00,CLR,OVC,0.00,WeatherDisplay:10.37,2013-08-21 12:14:00,
2013-08-21 08:17:00,70.5,67.4,30.11,SSE,166,6.6,9.2,90,0.00,CLR,OVC,0.00,WeatherDisplay:10.37,2013-08-21 12:17:00,
2013-08-21 08:18:00,70.5,67.4,30.11,SSE,167,5.0,8.1,90,0.00,CLR,OVC,0.00,WeatherDisplay:10.37,2013-08-21 12:18:00,
2013-08-21 08:19:00,70.6,67.5,30.11,South,189,4.8,8.1,90,0.00,CLR,OVC,0.00,WeatherDisplay:10.37,2013-08-21 12:19:00,
2013-08-21 08:22:00,70.7,67.6,30.11,SW,217,7.1,9.2,90,0.00,CLR,OVC,0.00,WeatherDisplay:10.37,2013-08-21 12:22:00,
2013-08-21 08:23:00,70.7,67.6,30.11,SSW,206,7.1,9.2,90,0.00,CLR,OVC,0.00,WeatherDisplay:10.37,2013-08-21 12:23:00,
2013-08-21 08:24:00,70.8,67.7,30.11,SW,218,5.6,9.2,90,0.00,CLR,OVC,0.00,WeatherDisplay:10.37,2013-08-21 12:24:00,
2013-08-21 08:27:00,70.8,67.7,30.11,South,189,6.6,8.1,90,0.00,CLR,OVC,0.00,WeatherDisplay:10.37,2013-08-21 12:27:00,
2013-08-21 08:28:00,70.9,67.8,30.12,South,189,6.6,9.2,90,0.00,CLR,OVC,0.00,WeatherDisplay:10.37,2013-08-21 12:28:00,
2013-08-21 08:29:00,70.9,67.8,30.11,South,173,5.2,8.1,90,0.00,CLR,OVC,0.00,WeatherDisplay:10.37,2013-08-21 12:29:00,
2013-08-21 08:32:00,71.0,67.9,30.11,SSW,196,6.0,8.1,90,0.00,CLR,OVC,0.00,WeatherDisplay:10.37,2013-08-21 12:32:00,
2013-08-21 08:33:00,71.1,68.0,30.12,SSW,194,6.8,9.2,90,0.00,CLR,OVC,0.00,WeatherDisplay:10.37,2013-08-21 12:33:00,
2013-08-21 08:34:00,71.2,68.1,30.12,South,173,4.9,10.4,90,0.00,CLR,OVC,0.00,WeatherDisplay:10.37,2013-08-21 12:34:00,
2013-08-21 08:35:00,71.2,68.1,30.12,South,177,4.4,10.4,90,0.00,CLR,OVC,0.00,WeatherDisplay:10.37,2013-08-21 12:35:00,
2013-08-21 08:38:00,71.4,68.3,30.12,South,188,8.5,11.5,90,0.00,CLR,OVC,0.00,WeatherDisplay:10.37,2013-08-21 12:38:00,
2013-08-21 08:39:00,71.4,68.0,30.12,South,178,7.6,11.5,89,0.00,CLR,OVC,0.00,WeatherDisplay:10.37,2013-08-21 12:39:00,
2013-08-21 08:40:00,71.4,68.0,30.12,South,175,8.4,13.8,89,0.00,CLR,OVC,0.00,WeatherDisplay:10.37,2013-08-21 12:40:00,
2013-08-21 08:43:00,71.5,68.1,30.11,SSW,210,7.0,10.4,89,0.00,CLR,OVC,0.00,WeatherDisplay:10.37,2013-08-21 12:43:00,
2013-08-21 08:44:00,71.6,68.2,30.11,South,182,5.9,8.1,89,0.00,CLR,OVC,0.00,WeatherDisplay:10.37,2013-08-21 12:44:00,
2013-08-21 08:45:00,71.6,68.2,30.11,South,181,5.4,8.1,89,0.00,CLR,OVC,0.00,WeatherDisplay:10.37,2013-08-21 12:45:00,
2013-08-21 08:48:00,71.8,68.4,30.11,SSW,194,7.1,9.2,89,0.00,CLR,OVC,0.00,WeatherDisplay:10.37,2013-08-21 12:48:00,
2013-08-21 08:49:00,71.8,68.1,30.11,SSW,196,7.4,9.2,88,0.00,CLR,OVC,0.00,WeatherDisplay:10.37,2013-08-21 12:49:00,
2013-08-21 08:50:00,71.9,68.2,30.11,SSE,167,6.7,11.5,88,0.00,CLR,OVC,0.00,WeatherDisplay:10.37,2013-08-21 12:50:00,
2013-08-21 08:53:00,72.1,68.3,30.11,SSW,194,7.3,11.5,88,0.00,CLR,OVC,0.00,WeatherDisplay:10.37,2013-08-21 12:53:00,
2013-08-21 08:54:00,72.2,68.4,30.11,South,185,7.0,9.2,88,0.00,CLR,OVC,0.00,WeatherDisplay:10.37,2013-08-21 12:54:00,
2013-08-21 08:55:00,72.3,68.5,30.12,South,185,7.0,9.2,88,0.00,CLR,OVC,0.00,WeatherDisplay:10.37,2013-08-21 12:55:00,
2013-08-21 08:56:00,72.4,68.6,30.11,South,187,7.5,10.4,88,0.00,CLR,OVC,0.00,WeatherDisplay:10.37,2013-08-21 12:56:00,
2013-08-21 08:58:00,72.5,68.7,30.12,SSW,194,5.8,10.0,88,0.00,CLR,OVC,0.00,WeatherDisplay:10.37,2013-08-21 12:58:00,
2013-08-21 08:59:00,72.5,68.7,30.11,SSW,205,8.0,11.5,88,0.00,CLR,OVC,0.00,WeatherDisplay:10.37,2013-08-21 12:59:00,
2013-08-21 09:00:00,72.6,68.5,30.11,South,185,7.9,11.5,87,0.00,CLR,OVC,0.00,WeatherDisplay:10.37,2013-08-21 13:00:00,
2013-08-21 09:01:00,72.7,68.9,30.12,South,186,5.9,9.2,88,0.00,CLR,OVC,0.00,WeatherDisplay:10.37,2013-08-21 13:01:00,
2013-08-21 09:03:00,72.8,68.7,30.11,SSW,202,8.1,11.5,87,0.00,CLR,OVC,0.00,WeatherDisplay:10.37,2013-08-21 13:03:00,
2013-08-21 09:04:00,72.9,69.1,30.12,SSW,195,7.4,11.5,88,0.00,CLR,OVC,0.00,WeatherDisplay:10.37,2013-08-21 13:04:00,
2013-08-21 09:05:00,72.9,68.8,30.11,SSW,205,7.0,11.5,87,0.00,CLR,OVC,0.00,WeatherDisplay:10.37,2013-08-21 13:05:00,
2013-08-21 09:06:00,73.0,68.9,30.12,South,187,8.5,11.5,87,0.00,CLR,OVC,0.00,WeatherDisplay:10.37,2013-08-21 13:06:00,
2013-08-21 09:08:00,73.1,69.0,30.11,SSW,197,7.4,11.5,87,0.00,CLR,OVC,0.00,WeatherDisplay:10.37,2013-08-21 13:08:00,
2013-08-21 09:09:00,73.1,69.0,30.11,SSW,200,8.1,12.0,87,0.00,CLR,OVC,0.00,WeatherDisplay:10.37,2013-08-21 13:09:00,
2013-08-21 09:10:00,73.2,68.8,30.11,SSW,194,7.9,11.5,86,0.00,CLR,OVC,0.00,WeatherDisplay:10.37,2013-08-21 13:10:00,
2013-08-21 09:12:00,73.2,68.8,30.12,South,189,7.9,11.5,86,0.00,CLR,OVC,0.00,WeatherDisplay:10.37,2013-08-21 13:12:00,
2013-08-21 09:14:00,73.4,69.0,30.12,SSW,207,7.7,9.2,86,0.00,CLR,OVC,0.00,WeatherDisplay:10.37,2013-08-21 13:14:00,
2013-08-21 09:15:00,73.6,69.2,30.11,SSE,158,6.8,11.5,86,0.00,CLR,OVC,0.00,WeatherDisplay:10.37,2013-08-21 13:15:00,
2013-08-21 09:17:00,73.8,69.0,30.11,SSW,199,8.5,12.7,85,0.00,CLR,OVC,0.00,WeatherDisplay:10.37,2013-08-21 13:17:00,
2013-08-21 09:19:00,73.9,69.1,30.11,SSW,194,9.5,12.7,85,0.00,CLR,OVC,0.00,WeatherDisplay:10.37,2013-08-21 13:19:00,
2013-08-21 09:20:00,74.0,69.2,30.11,SSE,162,6.7,12.7,85,0.00,CLR,OVC,0.00,WeatherDisplay:10.37,2013-08-21 13:20:00,
2013-08-21 09:23:00,74.3,69.5,30.12,South,172,5.4,12.7,85,0.00,CLR,OVC,0.00,WeatherDisplay:10.37,2013-08-21 13:23:00,
2013-08-21 09:24:00,74.4,69.6,30.11,SSW,207,7.0,11.5,85,0.00,CLR,OVC,0.00,WeatherDisplay:10.37,2013-08-21 13:24:00,
2013-08-21 09:25:00,74.4,69.6,30.11,South,187,7.0,13.0,85,0.00,CLR,OVC,0.00,WeatherDisplay:10.37,2013-08-21 13:25:00,
2013-08-21 09:26:00,74.6,69.8,30.11,SSW,195,6.4,11.0,85,0.00,CLR,OVC,0.00,WeatherDisplay:10.37,2013-08-21 13:26:00,
2013-08-21 09:28:00,74.7,69.5,30.12,SW,214,8.6,10.4,84,0.00,CLR,OVC,0.00,WeatherDisplay:10.37,2013-08-21 13:28:00,
2013-08-21 09:29:00,74.8,69.6,30.12,SSE,151,7.0,10.4,84,0.00,CLR,OVC,0.00,WeatherDisplay:10.37,2013-08-21 13:29:00,
2013-08-21 09:30:00,74.8,69.7,30.12,South,183,7.0,12.0,84,0.00,CLR,OVC,0.00,WeatherDisplay:10.37,2013-08-21 13:30:00,
2013-08-21 09:31:00,74.9,69.7,30.11,South,186,4.8,6.9,84,0.00,CLR,OVC,0.00,WeatherDisplay:10.37,2013-08-21 13:31:00,
2013-08-21 09:33:00,75.0,69.8,30.12,South,188,6.1,9.2,84,0.00,CLR,OVC,0.00,WeatherDisplay:10.37,2013-08-21 13:33:00,
2013-08-21 09:34:00,75.1,69.6,30.11,SSW,201,7.2,11.5,83,0.00,CLR,OVC,0.00,WeatherDisplay:10.37,2013-08-21 13:34:00,
2013-08-21 09:35:00,75.2,69.7,30.11,South,181,7.3,10.4,83,0.00,CLR,OVC,0.00,WeatherDisplay:10.37,2013-08-21 13:35:00,
2013-08-21 09:36:00,75.2,69.7,30.11,South,179,7.0,10.4,83,0.00,CLR,OVC,0.00,WeatherDisplay:10.37,2013-08-21 13:36:00,
2013-08-21 09:38:00,75.4,69.9,30.11,South,179,4.5,6.9,83,0.00,CLR,OVC,0.00,WeatherDisplay:10.37,2013-08-21 13:38:00,
2013-08-21 09:39:00,75.6,70.1,30.11,SSW,204,6.2,9.2,83,0.00,CLR,OVC,0.00,WeatherDisplay:10.37,2013-08-21 13:39:00,
2013-08-21 09:40:00,75.6,70.0,30.11,South,183,6.0,10.0,83,0.00,CLR,OVC,0.00,WeatherDisplay:10.37,2013-08-21 13:40:00,
2013-08-21 09:41:00,75.7,70.2,30.11,South,181,6.8,11.0,83,0.00,CLR,OVC,0.00,WeatherDisplay:10.37,2013-08-21 13:41:00,
2013-08-21 09:43:00,75.8,69.9,30.11,SW,215,6.7,10.4,82,0.00,CLR,OVC,0.00,WeatherDisplay:10.37,2013-08-21 13:43:00,
2013-08-21 09:45:00,75.8,69.9,30.11,SSW,201,6.9,9.2,82,0.00,CLR,OVC,0.00,WeatherDisplay:10.37,2013-08-21 13:45:00,
2013-08-21 09:46:00,75.9,69.6,30.11,SSW,212,8.1,10.0,81,0.00,CLR,OVC,0.00,WeatherDisplay:10.37,2013-08-21 13:46:00,
2013-08-21 09:48:00,76.0,70.1,30.11,SSW,192,7.0,11.0,82,0.00,CLR,OVC,0.00,WeatherDisplay:10.37,2013-08-21 13:48:00,
2013-08-21 09:50:00,76.1,69.8,30.11,South,187,8.4,12.7,81,0.00,CLR,OVC,0.00,WeatherDisplay:10.37,2013-08-21 13:50:00,
2013-08-21 09:51:00,76.2,69.9,30.12,SSW,202,6.2,11.5,81,0.00,CLR,OVC,0.00,WeatherDisplay:10.37,2013-08-21 13:51:00,
2013-08-21 09:53:00,76.4,70.1,30.11,SSE,166,7.9,11.5,81,0.00,CLR,OVC,0.00,WeatherDisplay:10.37,2013-08-21 13:53:00,
2013-08-21 09:55:00,76.5,70.2,30.11,SW,216,6.3,10.4,81,0.00,CLR,OVC,0.00,WeatherDisplay:10.37,2013-08-21 13:55:00,
2013-08-21 09:56:00,76.6,70.3,30.11,SSW,194,7.4,11.5,81,0.00,CLR,OVC,0.00,WeatherDisplay:10.37,2013-08-21 13:56:00,
2013-08-21 09:57:00,76.6,70.0,30.11,South,175,9.1,11.5,80,0.00,CLR,OVC,0.00,WeatherDisplay:10.37,2013-08-21 13:57:00,
2013-08-21 09:59:00,76.8,70.2,30.11,SSW,200,6.7,9.2,80,0.00,CLR,OVC,0.00,WeatherDisplay:10.37,2013-08-21 13:59:00,
2013-08-21 10:00:00,76.8,70.2,30.11,South,179,8.0,11.5,80,0.00,CLR,OVC,0.00,WeatherDisplay:10.37,2013-08-21 14:00:00,
2013-08-21 10:01:00,76.9,70.3,30.11,South,179,7.7,11.5,80,0.00,CLR,OVC,0.00,WeatherDisplay:10.37,2013-08-21 14:01:00,
2013-08-21 10:02:00,77.0,70.4,30.11,SSW,196,7.8,11.5,80,0.00,CLR,OVC,0.00,WeatherDisplay:10.37,2013-08-21 14:02:00,
2013-08-21 10:05:00,77.2,70.5,30.11,SW,226,7.7,11.5,80,0.00,CLR,OVC,0.00,WeatherDisplay:10.37,2013-08-21 14:05:00,
2013-08-21 10:06:00,77.2,70.2,30.11,SW,219,7.5,10.4,79,0.00,CLR,OVC,0.00,WeatherDisplay:10.37,2013-08-21 14:06:00,
2013-08-21 10:08:00,77.2,70.5,30.11,South,179,6.7,11.5,80,0.00,CLR,OVC,0.00,WeatherDisplay:10.37,2013-08-21 14:08:00,
2013-08-21 10:10:00,77.4,70.4,30.11,SSW,210,8.5,11.5,79,0.00,CLR,OVC,0.00,WeatherDisplay:10.37,2013-08-21 14:10:00,
2013-08-21 10:11:00,77.4,70.4,30.11,SW,215,7.7,11.5,79,0.00,CLR,OVC,0.00,WeatherDisplay:10.37,2013-08-21 14:11:00,
2013-08-21 10:13:00,77.5,70.5,30.11,South,181,8.6,12.7,79,0.00,CLR,OVC,0.00,WeatherDisplay:10.37,2013-08-21 14:13:00,
2013-08-21 10:15:00,77.7,70.7,30.11,South,181,7.2,10.4,79,0.00,CLR,OVC,0.00,WeatherDisplay:10.37,2013-08-21 14:15:00,
2013-08-21 10:16:00,77.7,70.7,30.11,South,178,7.3,10.4,79,0.00,CLR,OVC,0.00,WeatherDisplay:10.37,2013-08-21 14:16:00,
2013-08-21 10:18:00,77.8,70.4,30.11,South,180,9.4,11.5,78,0.00,CLR,OVC,0.00,WeatherDisplay:10.37,2013-08-21 14:18:00,
2013-08-21 10:20:00,78.0,70.6,30.11,South,184,9.1,10.4,78,0.00,CLR,OVC,0.00,WeatherDisplay:10.37,2013-08-21 14:20:00,
2013-08-21 10:21:00,78.0,70.6,30.11,SSW,200,9.3,13.8,78,0.00,CLR,OVC,0.00,WeatherDisplay:10.37,2013-08-21 14:21:00,
2013-08-21 10:23:00,78.1,70.7,30.11,South,180,7.2,10.4,78,0.00,CLR,OVC,0.00,WeatherDisplay:10.37,2013-08-21 14:23:00,
2013-08-21 10:25:00,78.3,70.9,30.11,South,184,6.6,11.5,78,0.00,CLR,OVC,0.00,WeatherDisplay:10.37,2013-08-21 14:25:00,
2013-08-21 10:26:00,78.4,71.0,30.11,SE,145,6.8,10.4,78,0.00,CLR,OVC,0.00,WeatherDisplay:10.37,2013-08-21 14:26:00,
2013-08-21 10:27:00,78.4,70.6,30.11,SSE,167,8.5,11.5,77,0.00,CLR,OVC,0.00,WeatherDisplay:10.37,2013-08-21 14:27:00,
2013-08-21 10:28:00,78.5,70.3,30.11,South,176,8.7,11.5,76,0.00,CLR,OVC,0.00,WeatherDisplay:10.37,2013-08-21 14:28:00,
2013-08-21 10:30:00,78.5,70.7,30.11,SSW,195,8.0,11.5,77,0.00,CLR,OVC,0.00,WeatherDisplay:10.37,2013-08-21 14:30:00,
2013-08-21 10:31:00,78.6,70.8,30.11,South,170,7.8,10.4,77,0.00,CLR,OVC,0.00,WeatherDisplay:10.37,2013-08-21 14:31:00,
2013-08-21 10:32:00,78.6,70.8,30.10,SW,216,7.7,10.4,77,0.00,CLR,OVC,0.00,WeatherDisplay:10.37,2013-08-21 14:32:00,
2013-08-21 10:34:00,78.7,70.9,30.11,SSW,202,8.0,11.5,77,0.00,CLR,OVC,0.00,WeatherDisplay:10.37,2013-08-21 14:34:00,
2013-08-21 10:36:00,78.9,70.7,30.11,South,189,7.2,11.5,76,0.00,CLR,OVC,0.00,WeatherDisplay:10.37,2013-08-21 14:36:00,
2013-08-21 10:37:00,79.0,70.8,30.10,South,170,8.0,11.5,76,0.00,CLR,OVC,0.00,WeatherDisplay:10.37,2013-08-21 14:37:00,
2013-08-21 10:38:00,79.0,70.8,30.10,South,184,8.0,11.5,76,0.00,CLR,OVC,0.00,WeatherDisplay:10.37,2013-08-21 14:38:00,
2013-08-21 10:39:00,79.1,70.9,30.10,South,172,6.7,11.5,76,0.00,CLR,OVC,0.00,WeatherDisplay:10.37,2013-08-21 14:39:00,
2013-08-21 10:41:00,79.2,71.4,30.10,SW,215,7.3,11.5,77,0.00,CLR,OVC,0.00,WeatherDisplay:10.37,2013-08-21 14:41:00,
2013-08-21 10:42:00,79.2,71.0,30.10,South,187,7.9,11.5,76,0.00,CLR,OVC,0.00,WeatherDisplay:10.37,2013-08-21 14:42:00,
2013-08-21 10:43:00,79.3,70.7,30.10,South,175,6.6,10.4,75,0.00,CLR,OVC,0.00,WeatherDisplay:10.37,2013-08-21 14:43:00,
2013-08-21 10:44:00,79.4,71.2,30.10,SSW,201,8.4,12.7,76,0.00,CLR,OVC,0.00,WeatherDisplay:10.37,2013-08-21 14:44:00,
2013-08-21 10:46:00,79.5,70.9,30.10,South,187,7.6,12.7,75,0.00,CLR,OVC,0.00,WeatherDisplay:10.37,2013-08-21 14:46:00,
2013-08-21 10:47:00,79.5,70.9,30.10,South,187,6.0,12.7,75,0.00,CLR,OVC,0.00,WeatherDisplay:10.37,2013-08-21 14:47:00,
2013-08-21 10:48:00,79.6,71.4,30.10,SSW,196,6.7,10.4,76,0.00,CLR,OVC,0.00,WeatherDisplay:10.37,2013-08-21 14:48:00,
2013-08-21 10:49:00,79.6,71.4,30.10,SSW,201,7.8,10.4,76,0.00,CLR,OVC,0.00,WeatherDisplay:10.37,2013-08-21 14:49:00,
2013-08-21 10:52:00,79.8,71.2,30.10,SSE,167,6.8,10.4,75,0.00,CLR,OVC,0.00,WeatherDisplay:10.37,2013-08-21 14:52:00,
2013-08-21 10:53:00,79.9,71.3,30.10,South,189,7.1,10.4,75,0.00,CLR,OVC,0.00,WeatherDisplay:10.37,2013-08-21 14:53:00,
2013-08-21 10:54:00,80.0,71.8,30.10,South,186,6.7,11.5,76,0.00,CLR,OVC,0.00,WeatherDisplay:10.37,2013-08-21 14:54:00,
2013-08-21 10:57:00,80.2,71.9,30.10,SSE,168,4.5,7.0,76,0.00,CLR,OVC,0.00,WeatherDisplay:10.37,2013-08-21 14:57:00,
2013-08-21 10:58:00,80.3,72.4,30.10,SW,219,6.3,9.2,77,0.00,CLR,OVC,0.00,WeatherDisplay:10.37,2013-08-21 14:58:00,
2013-08-21 10:59:00,80.4,72.1,30.09,SSW,207,8.1,10.4,76,0.00,CLR,OVC,0.00,WeatherDisplay:10.37,2013-08-21 14:59:00,
2013-08-21 11:02:00,80.4,71.7,30.10,SW,214,10.1,11.5,75,0.00,CLR,OVC,0.00,WeatherDisplay:10.37,2013-08-21 15:02:00,
2013-08-21 11:03:00,80.4,71.7,30.10,SSW,206,7.9,11.5,75,0.00,CLR,OVC,0.00,WeatherDisplay:10.37,2013-08-21 15:03:00,
2013-08-21 11:04:00,80.4,71.7,30.10,South,190,8.0,12.0,75,0.00,CLR,OVC,0.00,WeatherDisplay:10.37,2013-08-21 15:04:00,
2013-08-21 11:05:00,80.5,71.8,30.09,SSW,193,9.6,13.8,75,0.00,CLR,OVC,0.00,WeatherDisplay:10.37,2013-08-21 15:05:00,
2013-08-21 11:07:00,80.6,72.3,30.09,SSW,212,7.3,9.2,76,0.00,CLR,OVC,0.00,WeatherDisplay:10.37,2013-08-21 15:07:00,
2013-08-21 11:08:00,80.6,71.9,30.09,South,190,4.7,10.4,75,0.00,CLR,OVC,0.00,WeatherDisplay:10.37,2013-08-21 15:08:00,
2013-08-21 11:09:00,80.6,71.9,30.09,South,189,4.6,10.4,75,0.00,CLR,OVC,0.00,WeatherDisplay:10.37,2013-08-21 15:09:00,
2013-08-21 11:10:00,80.7,72.4,30.09,South,182,6.4,10.4,76,0.00,CLR,OVC,0.00,WeatherDisplay:10.37,2013-08-21 15:10:00,
2013-08-21 11:12:00,81.0,72.3,30.09,South,189,7.7,13.8,75,0.00,CLR,OVC,0.00,WeatherDisplay:10.37,2013-08-21 15:12:00,
2013-08-21 11:14:00,81.0,72.3,30.09,SW,215,7.2,13.8,75,0.00,CLR,OVC,0.00,WeatherDisplay:10.37,2013-08-21 15:14:00,
2013-08-21 11:15:00,81.1,72.4,30.09,SSW,203,8.2,10.4,75,0.00,CLR,OVC,0.00,WeatherDisplay:10.37,2013-08-21 15:15:00,
2013-08-21 11:18:00,81.2,72.1,30.09,South,177,7.4,11.5,74,0.00,CLR,OVC,0.00,WeatherDisplay:10.37,2013-08-21 15:18:00,
2013-08-21 11:19:00,81.2,72.1,30.10,SW,216,5.8,11.5,74,0.00,CLR,OVC,0.00,WeatherDisplay:10.37,2013-08-21 15:19:00,
2013-08-21 11:20:00,81.2,72.1,30.10,SSW,209,9.5,12.7,74,0.00,CLR,OVC,0.00,WeatherDisplay:10.37,2013-08-21 15:20:00,
2013-08-21 11:23:00,81.2,71.7,30.09,SSW,193,7.8,11.5,73,0.00,CLR,OVC,0.00,WeatherDisplay:10.37,2013-08-21 15:23:00,
2013-08-21 11:24:00,81.3,72.2,30.09,SW,223,7.7,10.4,74,0.00,CLR,OVC,0.00,WeatherDisplay:10.37,2013-08-21 15:24:00,
2013-08-21 11:25:00,81.3,71.8,30.09,SSW,206,7.6,10.4,73,0.00,CLR,OVC,0.00,WeatherDisplay:10.37,2013-08-21 15:25:00,
2013-08-21 11:28:00,81.5,72.8,30.10,SW,214,7.1,11.5,75,0.00,CLR,OVC,0.00,WeatherDisplay:10.37,2013-08-21 15:28:00,
2013-08-21 11:29:00,81.6,72.9,30.09,SW,222,8.2,11.5,75,0.00,CLR,OVC,0.00,WeatherDisplay:10.37,2013-08-21 15:29:00,
2013-08-21 11:30:00,81.4,72.7,30.09,SSW,210,7.7,12.0,75,0.00,CLR,OVC,0.00,WeatherDisplay:10.37,2013-08-21 15:30:00,
2013-08-21 11:31:00,81.7,73.0,30.09,South,178,8.6,12.7,75,0.00,CLR,OVC,0.00,WeatherDisplay:10.37,2013-08-21 15:31:00,
2013-08-21 11:33:00,81.8,72.7,30.09,South,189,7.0,10.4,74,0.00,CLR,OVC,0.00,WeatherDisplay:10.37,2013-08-21 15:33:00,
2013-08-21 11:34:00,82.0,72.9,30.09,SW,215,9.0,11.5,74,0.00,CLR,OVC,0.00,WeatherDisplay:10.37,2013-08-21 15:34:00,
2013-08-21 11:35:00,82.0,72.5,30.09,South,182,10.0,12.7,73,0.00,CLR,OVC,0.00,WeatherDisplay:10.37,2013-08-21 15:35:00,
2013-08-21 11:36:00,82.1,72.6,30.09,SSW,192,9.0,12.7,73,0.00,CLR,OVC,0.00,WeatherDisplay:10.37,2013-08-21 15:36:00,
2013-08-21 11:38:00,82.1,72.2,30.09,South,176,7.9,12.7,72,0.00,CLR,OVC,0.00,WeatherDisplay:10.37,2013-08-21 15:38:00,
2013-08-21 11:39:00,82.2,72.7,30.09,South,190,8.0,10.4,73,0.00,CLR,OVC,0.00,WeatherDisplay:10.37,2013-08-21 15:39:00,
2013-08-21 11:40:00,82.2,72.3,30.09,South,184,7.4,10.4,72,0.00,CLR,OVC,0.00,WeatherDisplay:10.37,2013-08-21 15:40:00,
2013-08-21 11:41:00,82.3,72.8,30.09,SW,214,7.1,10.4,73,0.00,CLR,OVC,0.00,WeatherDisplay:10.37,2013-08-21 15:41:00,
2013-08-21 11:43:00,82.4,72.9,30.09,SSW,202,7.3,10.4,73,0.00,CLR,OVC,0.00,WeatherDisplay:10.37,2013-08-21 15:43:00,
2013-08-21 11:44:00,82.4,72.5,30.09,SW,222,10.1,16.1,72,0.00,CLR,OVC,0.00,WeatherDisplay:10.37,2013-08-21 15:44:00,
2013-08-21 11:45:00,82.4,72.5,30.09,SW,219,9.1,16.1,72,0.00,CLR,OVC,0.00,WeatherDisplay:10.37,2013-08-21 15:45:00,
2013-08-21 11:46:00,82.5,73.4,30.09,SSW,206,5.7,11.5,74,0.00,CLR,OVC,0.00,WeatherDisplay:10.37,2013-08-21 15:46:00,
2013-08-21 11:48:00,82.6,73.5,30.09,SSW,195,8.3,9.2,74,0.00,CLR,OVC,0.00,WeatherDisplay:10.37,2013-08-21 15:48:00,
2013-08-21 11:49:00,82.6,73.1,30.09,SSW,199,8.7,11.5,73,0.00,CLR,OVC,0.00,WeatherDisplay:10.37,2013-08-21 15:49:00,
2013-08-21 11:50:00,82.6,72.7,30.09,South,188,9.0,13.8,72,0.00,CLR,OVC,0.00,WeatherDisplay:10.37,2013-08-21 15:50:00,
2013-08-21 11:52:00,82.7,72.7,30.09,SW,223,8.8,12.7,72,0.00,CLR,OVC,0.00,WeatherDisplay:10.37,2013-08-21 15:52:00,
2013-08-21 11:53:00,82.7,72.7,30.08,SW,218,8.0,12.7,72,0.00,CLR,OVC,0.00,WeatherDisplay:10.37,2013-08-21 15:53:00,
2013-08-21 11:55:00,82.8,72.8,30.08,SSW,199,7.7,10.4,72,0.00,CLR,OVC,0.00,WeatherDisplay:10.37,2013-08-21 15:55:00,
2013-08-21 11:56:00,82.8,72.8,30.08,SSW,194,7.7,10.4,72,0.00,CLR,OVC,0.00,WeatherDisplay:10.37,2013-08-21 15:56:00,
2013-08-21 11:57:00,82.9,72.9,30.08,SSW,207,8.1,11.5,72,0.00,CLR,OVC,0.00,WeatherDisplay:10.37,2013-08-21 15:57:00,
2013-08-21 11:58:00,83.0,73.0,30.08,SSW,195,6.3,12.7,72,0.00,CLR,OVC,0.00,WeatherDisplay:10.37,2013-08-21 15:58:00,
2013-08-21 12:00:00,83.1,73.1,30.08,SSW,201,8.9,13.8,72,0.00,CLR,OVC,0.00,WeatherDisplay:10.37,2013-08-21 16:00:00,
2013-08-21 12:01:00,83.1,73.1,30.08,SW,214,10.0,13.8,72,0.00,CLR,OVC,0.00,WeatherDisplay:10.37,2013-08-21 16:01:00,
2013-08-21 12:02:00,83.1,72.3,30.08,SSW,199,8.5,13.8,70,0.00,CLR,OVC,0.00,WeatherDisplay:10.37,2013-08-21 16:02:00,
2013-08-21 12:04:00,83.2,72.8,30.08,SSW,201,6.8,11.0,71,0.00,CLR,OVC,0.00,WeatherDisplay:10.37,2013-08-21 16:04:00,
2013-08-21 12:05:00,83.3,72.5,30.08,SSW,193,10.3,14.0,70,0.00,CLR,OVC,0.00,WeatherDisplay:10.37,2013-08-21 16:05:00,
2013-08-21 12:06:00,83.3,72.5,30.08,South,179,10.6,14.0,70,0.00,CLR,OVC,0.00,WeatherDisplay:10.37,2013-08-21 16:06:00,
2013-08-21 12:07:00,83.2,72.0,30.08,South,189,10.3,16.1,69,0.00,CLR,OVC,0.00,WeatherDisplay:10.37,2013-08-21 16:07:00,
2013-08-21 12:09:00,83.3,72.5,30.08,SSW,204,8.7,11.5,70,0.00,CLR,OVC,0.00,WeatherDisplay:10.37,2013-08-21 16:09:00,
2013-08-21 12:10:00,83.3,72.5,30.08,SW,223,10.6,13.8,70,0.00,CLR,OVC,0.00,WeatherDisplay:10.37,2013-08-21 16:10:00,
2013-08-21 12:11:00,83.3,72.5,30.08,SW,214,9.8,13.8,70,0.00,CLR,OVC,0.00,WeatherDisplay:10.37,2013-08-21 16:11:00,
2013-08-21 12:12:00,83.3,72.9,30.08,SSW,206,8.5,11.5,71,0.00,CLR,OVC,0.00,WeatherDisplay:10.37,2013-08-21 16:12:00,
2013-08-21 12:15:00,83.4,73.0,30.08,SSW,206,7.5,11.5,71,0.00,CLR,OVC,0.00,WeatherDisplay:10.37,2013-08-21 16:15:00,
2013-08-21 12:16:00,83.5,73.5,30.08,South,183,5.8,11.0,72,0.00,CLR,OVC,0.00,WeatherDisplay:10.37,2013-08-21 16:16:00,
2013-08-21 12:17:00,83.6,72.3,30.08,South,186,8.6,12.7,69,0.00,CLR,OVC,0.00,WeatherDisplay:10.37,2013-08-21 16:17:00,
2013-08-21 12:20:00,83.8,72.5,30.08,SSW,199,9.6,12.7,69,0.00,CLR,OVC,0.00,WeatherDisplay:10.37,2013-08-21 16:20:00,
2013-08-21 12:21:00,83.9,72.6,30.08,South,190,9.3,11.5,69,0.00,CLR,OVC,0.00,WeatherDisplay:10.37,2013-08-21 16:21:00,
2013-08-21 12:22:00,83.9,73.1,30.08,SSW,210,8.3,11.5,70,0.00,CLR,OVC,0.00,WeatherDisplay:10.37,2013-08-21 16:22:00,
2013-08-21 12:25:00,84.0,73.2,30.08,SSW,208,7.8,11.5,70,0.00,CLR,OVC,0.00,WeatherDisplay:10.37,2013-08-21 16:25:00,
2013-08-21 12:26:00,84.0,73.2,30.08,SSW,206,7.6,10.0,70,0.00,CLR,OVC,0.00,WeatherDisplay:10.37,2013-08-21 16:26:00,
2013-08-21 12:27:00,84.0,73.2,30.08,South,171,9.1,9.2,70,0.00,CLR,OVC,0.00,WeatherDisplay:10.37,2013-08-21 16:27:00,
2013-08-21 12:28:00,84.0,73.2,30.08,South,191,8.5,11.5,70,0.00,CLR,OVC,0.00,WeatherDisplay:10.37,2013-08-21 16:28:00,
2013-08-21 12:30:00,84.1,73.3,30.08,SSE,164,7.8,13.8,70,0.00,CLR,OVC,0.00,WeatherDisplay:10.37,2013-08-21 16:30:00,
2013-08-21 12:31:00,84.2,72.9,30.08,South,182,9.5,13.8,69,0.00,CLR,OVC,0.00,WeatherDisplay:10.37,2013-08-21 16:31:00,
2013-08-21 12:32:00,84.2,72.9,30.08,SSE,161,9.7,13.8,69,0.00,CLR,OVC,0.00,WeatherDisplay:10.37,2013-08-21 16:32:00,
2013-08-21 12:34:00,84.2,72.5,30.08,South,191,7.8,13.8,68,0.00,CLR,OVC,0.00,WeatherDisplay:10.37,2013-08-21 16:34:00,
2013-08-21 12:35:00,84.2,72.5,30.08,SSE,158,6.6,9.2,68,0.00,CLR,OVC,0.00,WeatherDisplay:10.37,2013-08-21 16:35:00,
2013-08-21 12:37:00,84.3,72.6,30.08,South,170,7.5,9.2,68,0.00,CLR,OVC,0.00,WeatherDisplay:10.37,2013-08-21 16:37:00,
2013-08-21 12:39:00,84.4,73.1,30.08,SSE,158,7.3,11.5,69,0.00,CLR,OVC,0.00,WeatherDisplay:10.37,2013-08-21 16:39:00,
2013-08-21 12:41:00,84.6,74.2,30.08,South,172,6.2,6.9,71,0.00,CLR,OVC,0.00,WeatherDisplay:10.37,2013-08-21 16:41:00,
2013-08-21 12:42:00,84.7,74.3,30.08,South,179,7.5,12.7,71,0.00,CLR,OVC,0.00,WeatherDisplay:10.37,2013-08-21 16:42:00,
2013-08-21 12:45:00,84.8,73.5,30.08,South,183,7.2,11.5,69,0.00,CLR,OVC,0.00,WeatherDisplay:10.37,2013-08-21 16:45:00,
2013-08-21 12:46:00,84.8,73.5,30.08,SSW,205,8.1,11.5,69,0.00,CLR,OVC,0.00,WeatherDisplay:10.37,2013-08-21 16:46:00,
2013-08-21 12:47:00,84.9,73.6,30.08,SSW,210,8.8,11.5,69,0.00,CLR,OVC,0.00,WeatherDisplay:10.37,2013-08-21 16:47:00,
2013-08-21 12:50:00,84.9,73.2,30.08,South,180,11.4,11.5,68,0.00,CLR,OVC,0.00,WeatherDisplay:10.37,2013-08-21 16:50:00,
2013-08-21 12:51:00,84.8,73.1,30.07,SSW,193,7.0,11.5,68,0.00,CLR,OVC,0.00,WeatherDisplay:10.37,2013-08-21 16:51:00,
2013-08-21 12:52:00,84.8,73.9,30.07,SSW,195,4.3,7.0,70,0.00,CLR,OVC,0.00,WeatherDisplay:10.37,2013-08-21 16:52:00,
2013-08-21 12:53:00,84.8,73.9,30.07,SSW,206,5.0,6.9,70,0.00,CLR,OVC,0.00,WeatherDisplay:10.37,2013-08-21 16:53:00,
2013-08-21 12:55:00,85.1,74.2,30.07,SSW,197,6.1,8.1,70,0.00,CLR,OVC,0.00,WeatherDisplay:10.37,2013-08-21 16:55:00,
2013-08-21 12:56:00,85.2,73.4,30.07,SSW,213,6.5,10.4,68,0.00,CLR,OVC,0.00,WeatherDisplay:10.37,2013-08-21 16:56:00,
2013-08-21 12:57:00,85.3,73.5,30.08,SSW,201,4.7,8.1,68,0.00,CLR,OVC,0.00,WeatherDisplay:10.37,2013-08-21 16:57:00,
2013-08-21 12:58:00,85.3,74.0,30.07,South,181,4.1,8.1,69,0.00,CLR,OVC,0.00,WeatherDisplay:10.37,2013-08-21 16:58:00,
2013-08-21 13:00:00,85.4,73.6,30.07,South,182,7.0,12.0,68,0.00,CLR,OVC,0.00,WeatherDisplay:10.37,2013-08-21 17:00:00,
2013-08-21 13:02:00,85.6,73.4,30.07,South,186,6.8,10.4,67,0.00,CLR,OVC,0.00,WeatherDisplay:10.37,2013-08-21 17:02:00,
2013-08-21 13:03:00,85.6,73.4,30.07,South,169,4.6,9.2,67,0.00,CLR,OVC,0.00,WeatherDisplay:10.37,2013-08-21 17:03:00,
2013-08-21 13:05:00,85.8,74.0,30.07,SSE,148,3.1,6.9,68,0.00,CLR,OVC,0.00,WeatherDisplay:10.37,2013-08-21 17:05:00,
2013-08-21 13:07:00,86.1,74.7,30.07,SSE,158,5.3,10.0,69,0.00,CLR,OVC,0.00,WeatherDisplay:10.37,2013-08-21 17:07:00,
2013-08-21 13:08:00,86.2,74.0,30.07,SE,139,9.3,12.7,67,0.00,CLR,OVC,0.00,WeatherDisplay:10.37,2013-08-21 17:08:00,
2013-08-21 13:09:00,86.3,74.0,30.07,SSE,152,10.0,12.7,67,0.00,CLR,OVC,0.00,WeatherDisplay:10.37,2013-08-21 17:09:00,
2013-08-21 13:10:00,86.3,73.6,30.07,SSE,152,10.0,13.0,66,0.00,CLR,OVC,0.00,WeatherDisplay:10.37,2013-08-21 17:10:00,
2013-08-21 13:12:00,86.3,73.1,30.07,South,178,4.0,5.8,65,0.00,CLR,OVC,0.00,WeatherDisplay:10.37,2013-08-21 17:12:00,
2013-08-21 13:13:00,86.4,73.7,30.07,SSW,200,3.4,6.0,66,0.00,CLR,OVC,0.00,WeatherDisplay:10.37,2013-08-21 17:13:00,
2013-08-21 13:14:00,86.4,73.7,30.07,SSE,157,4.6,8.0,66,0.00,CLR,OVC,0.00,WeatherDisplay:10.37,2013-08-21 17:14:00,
2013-08-21 13:15:00,86.5,74.2,30.07,South,175,5.3,8.1,67,0.00,CLR,OVC,0.00,WeatherDisplay:10.37,2013-08-21 17:15:00,
2013-08-21 13:17:00,86.7,74.4,30.07,South,178,7.9,10.4,67,0.00,CLR,OVC,0.00,WeatherDisplay:10.37,2013-08-21 17:17:00,
2013-08-21 13:18:00,86.7,73.5,30.07,South,172,8.6,11.5,65,0.00,CLR,OVC,0.00,WeatherDisplay:10.37,2013-08-21 17:18:00,
2013-08-21 13:19:00,86.7,73.5,30.07,South,181,6.9,11.5,65,0.00,CLR,OVC,0.00,WeatherDisplay:10.37,2013-08-21 17:19:00,
2013-08-21 13:20:00,86.7,73.5,30.07,SSW,202,8.5,11.5,65,0.00,CLR,OVC,0.00,WeatherDisplay:10.37,2013-08-21 17:20:00,
2013-08-21 13:22:00,86.7,72.6,30.06,SSW,196,3.6,9.2,63,0.00,CLR,OVC,0.00,WeatherDisplay:10.37,2013-08-21 17:22:00,
2013-08-21 13:23:00,86.7,73.5,30.06,South,180,2.7,6.0,65,0.00,CLR,OVC,0.00,WeatherDisplay:10.37,2013-08-21 17:23:00,
2013-08-21 13:24:00,86.7,74.0,30.06,South,170,4.3,4.3,66,0.00,CLR,OVC,0.00,WeatherDisplay:10.37,2013-08-21 17:24:00,
2013-08-21 13:25:00,86.8,74.5,30.06,SE,135,5.5,8.1,67,0.00,CLR,OVC,0.00,WeatherDisplay:10.37,2013-08-21 17:25:00,
2013-08-21 13:27:00,87.0,74.7,30.06,ESE,112,7.4,11.5,67,0.00,CLR,OVC,0.00,WeatherDisplay:10.37,2013-08-21 17:27:00,
2013-08-21 13:28:00,87.0,74.7,30.06,SSW,200,5.8,9.2,67,0.00,CLR,OVC,0.00,WeatherDisplay:10.37,2013-08-21 17:28:00,
2013-08-21 13:29:00,87.1,74.8,30.06,SSW,199,7.6,11.5,67,0.00,CLR,OVC,0.00,WeatherDisplay:10.37,2013-08-21 17:29:00,
2013-08-21 13:31:00,87.0,73.3,30.06,SSE,168,5.8,11.5,64,0.00,CLR,OVC,0.00,WeatherDisplay:10.37,2013-08-21 17:31:00,
2013-08-21 13:32:00,87.0,73.8,30.06,South,185,8.5,10.4,65,0.00,CLR,OVC,0.00,WeatherDisplay:10.37,2013-08-21 17:32:00,
2013-08-21 13:33:00,87.0,72.9,30.06,South,182,7.4,10.4,63,0.00,CLR,OVC,0.00,WeatherDisplay:10.37,2013-08-21 17:33:00,
2013-08-21 13:34:00,87.0,73.3,30.06,SSW,197,6.0,9.2,64,0.00,CLR,OVC,0.00,WeatherDisplay:10.37,2013-08-21 17:34:00,
2013-08-21 13:36:00,87.0,74.3,30.06,SSE,151,9.4,12.7,66,0.00,CLR,OVC,0.00,WeatherDisplay:10.37,2013-08-21 17:36:00,
2013-08-21 13:38:00,87.1,74.4,30.06,SE,132,6.9,12.7,66,0.00,CLR,OVC,0.00,WeatherDisplay:10.37,2013-08-21 17:38:00,
2013-08-21 13:39:00,87.3,74.5,30.06,SSE,149,5.9,11.5,66,0.00,CLR,OVC,0.00,WeatherDisplay:10.37,2013-08-21 17:39:00,
2013-08-21 13:40:00,87.3,74.5,30.06,SSE,149,3.4,11.5,66,0.00,CLR,OVC,0.00,WeatherDisplay:10.37,2013-08-21 17:40:00,
2013-08-21 13:41:00,87.4,74.6,30.06,SSW,205,5.2,6.9,66,0.00,CLR,OVC,0.00,WeatherDisplay:10.37,2013-08-21 17:41:00,
2013-08-21 13:43:00,87.4,73.7,30.06,SW,215,4.8,6.9,64,0.00,CLR,OVC,0.00,WeatherDisplay:10.37,2013-08-21 17:43:00,
2013-08-21 13:44:00,87.5,75.2,30.06,SE,141,5.9,9.2,67,0.00,CLR,OVC,0.00,WeatherDisplay:10.37,2013-08-21 17:44:00,
2013-08-21 13:45:00,87.5,74.3,30.06,South,184,6.1,9.2,65,0.00,CLR,OVC,0.00,WeatherDisplay:10.37,2013-08-21 17:45:00,
2013-08-21 13:46:00,87.5,73.8,30.06,South,173,7.8,10.4,64,0.00,CLR,OVC,0.00,WeatherDisplay:10.37,2013-08-21 17:46:00,
2013-08-21 13:48:00,87.6,74.4,30.06,SSW,201,4.6,8.1,65,0.00,CLR,OVC,0.00,WeatherDisplay:10.37,2013-08-21 17:48:00,
2013-08-21 13:49:00,87.7,75.4,30.06,SSE,153,6.1,8.1,67,0.00,CLR,OVC,0.00,WeatherDisplay:10.37,2013-08-21 17:49:00,
2013-08-21 13:50:00,87.8,75.0,30.06,SSE,150,6.6,9.2,66,0.00,CLR,OVC,0.00,WeatherDisplay:10.37,2013-08-21 17:50:00,
2013-08-21 13:51:00,87.8,74.6,30.05,SSE,160,3.6,8.1,65,0.00,CLR,OVC,0.00,WeatherDisplay:10.37,2013-08-21 17:51:00,
2013-08-21 13:53:00,87.9,73.7,30.05,SW,223,6.8,10.4,63,0.00,CLR,OVC,0.00,WeatherDisplay:10.37,2013-08-21 17:53:00,
2013-08-21 13:54:00,87.9,73.3,30.05,SW,223,5.3,10.4,62,0.00,CLR,OVC,0.00,WeatherDisplay:10.37,2013-08-21 17:54:00,
2013-08-21 13:55:00,87.9,74.7,30.06,SSW,211,4.7,6.9,65,0.00,CLR,OVC,0.00,WeatherDisplay:10.37,2013-08-21 17:55:00,
2013-08-21 13:57:00,87.9,74.7,30.05,South,183,6.7,9.2,65,0.00,CLR,OVC,0.00,WeatherDisplay:10.37,2013-08-21 17:57:00,
2013-08-21 13:59:00,87.9,73.3,30.05,SW,215,8.6,12.7,62,0.00,CLR,OVC,0.00,WeatherDisplay:10.37,2013-08-21 17:59:00,
2013-08-21 14:00:00,87.9,73.7,30.05,SSW,201,7.0,13.0,63,0.00,CLR,OVC,0.00,WeatherDisplay:10.37,2013-08-21 18:00:00,
2013-08-21 14:01:00,87.9,74.2,30.06,South,175,7.0,8.1,64,0.00,CLR,OVC,0.00,WeatherDisplay:10.37,2013-08-21 18:01:00,
2013-08-21 14:02:00,87.9,74.2,30.06,South,176,7.4,12.0,64,0.00,CLR,OVC,0.00,WeatherDisplay:10.37,2013-08-21 18:02:00,
2013-08-21 14:04:00,88.0,74.3,30.06,SSW,204,8.6,11.5,64,0.00,CLR,OVC,0.00,WeatherDisplay:10.37,2013-08-21 18:04:00,
2013-08-21 14:05:00,88.0,73.8,30.06,SSW,193,8.0,12.0,63,0.00,CLR,OVC,0.00,WeatherDisplay:10.37,2013-08-21 18:05:00,
2013-08-21 14:06:00,88.0,74.3,30.05,SW,218,4.2,10.4,64,0.00,CLR,OVC,0.00,WeatherDisplay:10.37,2013-08-21 18:06:00,
2013-08-21 14:07:00,88.1,74.4,30.05,SW,223,5.3,10.4,64,0.00,CLR,OVC,0.00,WeatherDisplay:10.37,2013-08-21 18:07:00,
2013-08-21 14:09:00,88.1,75.3,30.05,SSE,166,5.0,9.2,66,0.00,CLR,OVC,0.00,WeatherDisplay:10.37,2013-08-21 18:09:00,
2013-08-21 14:11:00,88.2,74.5,30.05,South,174,6.1,8.1,64,0.00,CLR,OVC,0.00,WeatherDisplay:10.37,2013-08-21 18:11:00,
2013-08-21 14:12:00,88.3,74.6,30.05,SSW,202,5.8,9.2,64,0.00,CLR,OVC,0.00,WeatherDisplay:10.37,2013-08-21 18:12:00,
2013-08-21 14:14:00,88.3,73.6,30.06,SSE,166,3.3,6.0,62,0.00,CLR,OVC,0.00,WeatherDisplay:10.37,2013-08-21 18:14:00,
2013-08-21 14:15:00,88.3,73.1,30.05,South,185,3.0,10.0,61,0.00,CLR,OVC,0.00,WeatherDisplay:10.37,2013-08-21 18:15:00,
2013-08-21 14:16:00,88.3,74.1,30.06,SSW,198,7.1,8.0,63,0.00,CLR,OVC,0.00,WeatherDisplay:10.37,2013-08-21 18:16:00,
2013-08-21 14:17:00,88.2,73.0,30.05,SSW,206,5.6,10.4,61,0.00,CLR,OVC,0.00,WeatherDisplay:10.37,2013-08-21 18:17:00,
2013-08-21 14:19:00,88.3,73.6,30.05,SW,227,9.4,15.0,62,0.00,CLR,OVC,0.00,WeatherDisplay:10.37,2013-08-21 18:19:00,
2013-08-21 14:20:00,88.3,73.6,30.05,SW,217,9.4,11.5,62,0.00,CLR,OVC,0.00,WeatherDisplay:10.37,2013-08-21 18:20:00,
2013-08-21 14:21:00,88.3,74.1,30.05,SSW,210,11.0,16.1,63,0.00,CLR,OVC,0.00,WeatherDisplay:10.37,2013-08-21 18:21:00,
2013-08-21 14:22:00,88.3,73.1,30.05,SW,229,10.0,15.0,61,0.00,CLR,OVC,0.00,WeatherDisplay:10.37,2013-08-21 18:22:00,
2013-08-21 14:25:00,87.9,72.3,30.04,SW,220,7.5,10.4,60,0.00,CLR,OVC,0.00,WeatherDisplay:10.37,2013-08-21 18:25:00,
2013-08-21 14:26:00,87.7,72.1,30.04,SW,221,6.6,10.4,60,0.00,CLR,OVC,0.00,WeatherDisplay:10.37,2013-08-21 18:26:00,
2013-08-21 14:27:00,87.4,72.8,30.04,SW,218,9.7,16.1,62,0.00,CLR,OVC,0.00,WeatherDisplay:10.37,2013-08-21 18:27:00,
2013-08-21 14:30:00,87.1,73.0,30.04,South,187,7.3,13.0,63,0.00,CLR,OVC,0.00,WeatherDisplay:10.37,2013-08-21 18:30:00,
2013-08-21 14:31:00,87.0,72.4,30.04,South,181,9.3,10.4,62,0.00,CLR,OVC,0.00,WeatherDisplay:10.37,2013-08-21 18:31:00,
2013-08-21 14:33:00,87.0,71.9,30.04,SSW,203,7.2,11.5,61,0.00,CLR,OVC,0.00,WeatherDisplay:10.37,2013-08-21 18:33:00,
2013-08-21 14:35:00,87.3,72.2,30.04,South,176,7.9,10.0,61,0.00,CLR,OVC,0.00,WeatherDisplay:10.37,2013-08-21 18:35:00,
2013-08-21 14:36:00,87.3,71.7,30.04,SSW,206,8.3,12.7,60,0.00,CLR,OVC,0.00,WeatherDisplay:10.37,2013-08-21 18:36:00,
2013-08-21 14:37:00,87.4,71.8,30.04,SSW,213,6.2,12.7,60,0.00,CLR,OVC,0.00,WeatherDisplay:10.37,2013-08-21 18:37:00,
2013-08-21 14:38:00,87.5,72.4,30.04,SW,217,6.3,9.2,61,0.00,CLR,OVC,0.00,WeatherDisplay:10.37,2013-08-21 18:38:00,
2013-08-21 14:40:00,87.7,73.1,30.03,SSW,194,7.4,10.4,62,0.00,CLR,OVC,0.00,WeatherDisplay:10.37,2013-08-21 18:40:00,
2013-08-21 14:41:00,87.9,72.8,30.03,South,188,6.5,9.2,61,0.00,CLR,OVC,0.00,WeatherDisplay:10.37,2013-08-21 18:41:00,
2013-08-21 14:42:00,87.9,72.3,30.03,South,188,5.9,9.2,60,0.00,CLR,OVC,0.00,WeatherDisplay:10.37,2013-08-21 18:42:00,
2013-08-21 14:43:00,88.0,72.9,30.03,SW,219,7.6,10.4,61,0.00,CLR,OVC,0.00,WeatherDisplay:10.37,2013-08-21 18:43:00,
2013-08-21 14:44:00,88.0,73.3,30.03,South,181,8.9,12.0,62,0.00,CLR,OVC,0.00,WeatherDisplay:10.37,2013-08-21 18:44:00,
2013-08-21 14:45:00,88.2,72.1,30.03,SSW,212,7.5,11.5,59,0.00,CLR,OVC,0.00,WeatherDisplay:10.37,2013-08-21 18:45:00,
2013-08-21 14:47:00,88.4,72.2,30.03,SSW,203,6.4,11.5,59,0.00,CLR,OVC,0.00,WeatherDisplay:10.37,2013-08-21 18:47:00,
2013-08-21 14:48:00,88.4,71.2,30.03,South,187,7.1,11.5,57,0.00,CLR,OVC,0.00,WeatherDisplay:10.37,2013-08-21 18:48:00,
2013-08-21 14:49:00,88.4,70.7,30.03,South,189,5.8,11.5,56,0.00,CLR,OVC,0.00,WeatherDisplay:10.37,2013-08-21 18:49:00,
2013-08-21 14:51:00,88.3,71.1,30.03,South,187,5.6,8.1,57,0.00,CLR,OVC,0.00,WeatherDisplay:10.37,2013-08-21 18:51:00,
2013-08-21 14:52:00,88.4,71.7,30.03,SSW,194,5.9,9.2,58,0.00,CLR,OVC,0.00,WeatherDisplay:10.37,2013-08-21 18:52:00,
2013-08-21 14:53:00,88.4,71.2,30.03,SSW,209,8.5,12.7,57,0.00,CLR,OVC,0.00,WeatherDisplay:10.37,2013-08-21 18:53:00,
2013-08-21 14:54:00,88.4,70.7,30.03,SSW,196,10.8,12.7,56,0.00,CLR,OVC,0.00,WeatherDisplay:10.37,2013-08-21 18:54:00,
2013-08-21 14:56:00,88.4,71.7,30.03,West,261,7.9,10.4,58,0.00,CLR,OVC,0.00,WeatherDisplay:10.37,2013-08-21 18:56:00,
2013-08-21 14:57:00,88.4,71.2,30.03,WSW,257,9.3,11.5,57,0.00,CLR,OVC,0.00,WeatherDisplay:10.37,2013-08-21 18:57:00,
2013-08-21 14:59:00,88.4,71.7,30.02,WSW,252,5.8,11.5,58,0.00,CLR,OVC,0.00,WeatherDisplay:10.37,2013-08-21 18:59:00,
2013-08-21 15:01:00,88.3,71.6,30.02,SSW,211,5.5,6.9,58,0.00,CLR,OVC,0.00,WeatherDisplay:10.37,2013-08-21 19:01:00,
2013-08-21 15:02:00,88.3,71.6,30.02,SSW,211,4.1,5.8,58,0.00,CLR,OVC,0.00,WeatherDisplay:10.37,2013-08-21 19:02:00,
2013-08-21 15:04:00,88.2,71.6,30.02,South,178,4.3,5.8,58,0.00,CLR,OVC,0.00,WeatherDisplay:10.37,2013-08-21 19:04:00,
2013-08-21 15:05:00,88.2,72.6,30.02,South,178,3.7,5.0,60,0.00,CLR,OVC,0.00,WeatherDisplay:10.37,2013-08-21 19:05:00,
2013-08-21 15:06:00,88.2,71.6,30.02,SW,236,7.6,9.2,58,0.00,CLR,OVC,0.00,WeatherDisplay:10.37,2013-08-21 19:06:00,
2013-08-21 15:07:00,88.1,70.9,30.02,SW,224,9.2,11.5,57,0.00,CLR,OVC,0.00,WeatherDisplay:10.37,2013-08-21 19:07:00,
2013-08-21 15:09:00,87.8,70.7,30.02,South,170,5.7,8.1,57,0.00,CLR,OVC,0.00,WeatherDisplay:10.37,2013-08-21 19:09:00,
2013-08-21 15:10:00,87.7,70.6,30.02,SW,230,5.0,6.9,57,0.00,CLR,OVC,0.00,WeatherDisplay:10.37,2013-08-21 19:10:00,
2013-08-21 15:12:00,87.6,71.0,30.02,SW,216,5.5,8.1,58,0.00,CLR,OVC,0.00,WeatherDisplay:10.37,2013-08-21 19:12:00,
2013-08-21 15:14:00,87.5,70.9,30.02,SW,230,8.4,11.5,58,0.00,CLR,OVC,0.00,WeatherDisplay:10.37,2013-08-21 19:14:00,
2013-08-21 15:15:00,87.4,70.3,30.02,SW,230,9.6,11.5,57,0.00,CLR,OVC,0.00,WeatherDisplay:10.37,2013-08-21 19:15:00,
2013-08-21 15:17:00,87.2,70.6,30.01,WSW,247,7.8,9.2,58,0.00,CLR,OVC,0.00,WeatherDisplay:10.37,2013-08-21 19:17:00,
2013-08-21 15:18:00,87.1,70.5,30.01,WSW,250,6.9,9.2,58,0.00,CLR,OVC,0.00,WeatherDisplay:10.37,2013-08-21 19:18:00,
2013-08-21 15:19:00,87.0,70.9,30.01,WSW,248,4.4,6.9,59,0.00,CLR,OVC,0.00,WeatherDisplay:10.37,2013-08-21 19:19:00,
2013-08-21 15:21:00,86.8,71.2,30.01,WSW,248,4.5,5.8,60,0.00,CLR,OVC,0.00,WeatherDisplay:10.37,2013-08-21 19:21:00,
2013-08-21 15:22:00,86.8,72.2,30.01,SW,236,5.8,8.0,62,0.00,CLR,OVC,0.00,WeatherDisplay:10.37,2013-08-21 19:22:00,
2013-08-21 15:23:00,86.9,72.8,30.01,SW,236,6.5,6.5,63,0.00,CLR,OVC,0.00,WeatherDisplay:10.37,2013-08-21 19:23:00,
2013-08-21 15:24:00,87.1,72.0,30.01,SW,236,3.6,6.0,61,0.00,CLR,OVC,0.00,WeatherDisplay:10.37,2013-08-21 19:24:00,
2013-08-21 15:25:00,87.1,71.5,30.01,SW,236,3.7,5.8,60,0.00,CLR,OVC,0.00,WeatherDisplay:10.37,2013-08-21 19:25:00,
2013-08-21 15:26:00,87.2,70.6,30.01,SW,236,4.7,5.8,58,0.00,CLR,OVC,0.00,WeatherDisplay:10.37,2013-08-21 19:26:00,
2013-08-21 15:27:00,87.5,70.9,30.01,SW,236,4.8,5.8,58,0.00,CLR,OVC,0.00,WeatherDisplay:10.37,2013-08-21 19:27:00,
2013-08-21 15:28:00,87.6,71.5,30.01,SW,232,4.8,7.0,59,0.00,CLR,OVC,0.00,WeatherDisplay:10.37,2013-08-21 19:28:00,
2013-08-21 15:29:00,87.8,71.2,30.01,SW,234,4.2,8.1,58,0.00,CLR,OVC,0.00,WeatherDisplay:10.37,2013-08-21 19:29:00,
2013-08-21 15:30:00,87.9,71.8,30.01,SW,234,3.9,8.1,59,0.00,CLR,OVC,0.00,WeatherDisplay:10.37,2013-08-21 19:30:00,
2013-08-21 15:31:00,88.0,70.9,30.01,SW,234,5.3,6.9,57,0.00,CLR,OVC,0.00,WeatherDisplay:10.37,2013-08-21 19:31:00,
2013-08-21 15:33:00,88.1,71.5,30.01,SW,235,5.7,6.9,58,0.00,CLR,OVC,0.00,WeatherDisplay:10.37,2013-08-21 19:33:00,
2013-08-21 15:34:00,88.2,72.1,30.01,WSW,238,5.4,6.9,59,0.00,CLR,OVC,0.00,WeatherDisplay:10.37,2013-08-21 19:34:00,
2013-08-21 15:35:00,88.3,71.1,30.01,WSW,240,5.0,6.9,57,0.00,CLR,OVC,0.00,WeatherDisplay:10.37,2013-08-21 19:35:00,
2013-08-21 15:36:00,88.4,71.2,30.01,WSW,249,3.9,8.1,57,0.00,CLR,OVC,0.00,WeatherDisplay:10.37,2013-08-21 19:36:00,
2013-08-21 15:38:00,88.6,71.4,30.01,WSW,252,5.2,5.8,57,0.00,CLR,OVC,0.00,WeatherDisplay:10.37,2013-08-21 19:38:00,
2013-08-21 15:40:00,88.8,71.6,30.01,West,268,6.6,8.1,57,0.00,CLR,OVC,0.00,WeatherDisplay:10.37,2013-08-21 19:40:00,
2013-08-21 15:41:00,89.0,71.8,30.01,West,268,4.0,6.9,57,0.00,CLR,OVC,0.00,WeatherDisplay:10.37,2013-08-21 19:41:00,
2013-08-21 15:43:00,89.2,72.0,30.01,SW,235,6.1,8.1,57,0.00,CLR,OVC,0.00,WeatherDisplay:10.37,2013-08-21 19:43:00,
2013-08-21 15:45:00,89.1,71.9,30.01,SW,234,4.2,6.9,57,0.00,CLR,OVC,0.00,WeatherDisplay:10.37,2013-08-21 19:45:00,
2013-08-21 15:46:00,89.0,72.3,30.01,SW,234,3.1,4.0,58,0.00,CLR,OVC,0.00,WeatherDisplay:10.37,2013-08-21 19:46:00,
2013-08-21 15:48:00,88.9,72.7,30.01,SW,234,4.1,5.8,59,0.00,CLR,OVC,0.00,WeatherDisplay:10.37,2013-08-21 19:48:00,
2013-08-21 15:49:00,88.8,71.6,30.01,SW,234,3.1,5.8,57,0.00,CLR,OVC,0.00,WeatherDisplay:10.37,2013-08-21 19:49:00,
2013-08-21 15:50:00,88.6,71.4,30.01,SW,234,1.7,3.5,57,0.00,CLR,OVC,0.00,WeatherDisplay:10.37,2013-08-21 19:50:00,
2013-08-21 15:51:00,88.6,72.4,30.01,SW,234,1.1,2.3,59,0.00,CLR,OVC,0.00,WeatherDisplay:10.37,2013-08-21 19:51:00,
2013-08-21 15:53:00,88.6,71.4,30.00,SW,234,1.5,3.5,57,0.00,CLR,OVC,0.00,WeatherDisplay:10.37,2013-08-21 19:53:00,
2013-08-21 15:54:00,88.6,72.4,30.00,SW,234,1.6,2.3,59,0.00,CLR,OVC,0.00,WeatherDisplay:10.37,2013-08-21 19:54:00,
2013-08-21 15:55:00,88.7,71.0,30.00,SW,234,2.6,3.5,56,0.00,CLR,OVC,0.00,WeatherDisplay:10.37,2013-08-21 19:55:00,
2013-08-21 15:56:00,88.8,70.5,30.00,SW,234,2.7,4.0,55,0.00,CLR,OVC,0.00,WeatherDisplay:10.37,2013-08-21 19:56:00,
2013-08-21 15:57:00,88.8,71.6,30.00,SW,234,2.6,4.0,57,0.00,CLR,OVC,0.00,WeatherDisplay:10.37,2013-08-21 19:57:00,
2013-08-21 15:58:00,88.9,71.7,30.00,SW,234,3.4,4.0,57,0.00,CLR,OVC,0.00,WeatherDisplay:10.37,2013-08-21 19:58:00,
2013-08-21 15:59:00,89.0,71.8,30.00,SW,234,3.1,4.6,57,0.00,CLR,OVC,0.00,WeatherDisplay:10.37,2013-08-21 19:59:00,
2013-08-21 16:00:00,89.0,71.8,30.00,SW,234,2.2,3.5,57,0.00,CLR,OVC,0.00,WeatherDisplay:10.37,2013-08-21 20:00:00,
2013-08-21 16:02:00,89.2,72.0,30.00,SW,234,1.8,3.5,57,0.00,CLR,OVC,0.00,WeatherDisplay:10.37,2013-08-21 20:02:00,
2013-08-21 16:03:00,89.3,71.0,30.00,SW,234,1.2,2.3,55,0.00,CLR,OVC,0.00,WeatherDisplay:10.37,2013-08-21 20:03:00,
2013-08-21 16:04:00,89.3,69.9,30.00,SW,234,1.7,2.3,53,0.00,CLR,OVC,0.00,WeatherDisplay:10.37,2013-08-21 20:04:00,
2013-08-21 16:05:00,89.4,70.0,30.00,SW,234,1.0,3.0,53,0.00,CLR,OVC,0.00,WeatherDisplay:10.37,2013-08-21 20:05:00,
2013-08-21 16:06:00,89.5,69.5,30.00,SW,234,0.7,2.3,52,0.00,CLR,OVC,0.00,WeatherDisplay:10.37,2013-08-21 20:06:00,
2013-08-21 16:07:00,89.6,70.8,30.00,SW,227,1.9,5.0,54,0.00,CLR,OVC,0.00,WeatherDisplay:10.37,2013-08-21 20:07:00,
2013-08-21 16:08:00,89.6,69.1,30.01,SSW,208,1.1,5.8,51,0.00,CLR,OVC,0.00,WeatherDisplay:10.37,2013-08-21 20:08:00,
2013-08-21 16:09:00,89.6,69.6,30.01,SSW,208,0.1,1.2,52,0.00,CLR,OVC,0.00,WeatherDisplay:10.37,2013-08-21 20:09:00,
2013-08-21 16:10:00,89.6,69.1,30.01,SSW,208,0.9,1.2,51,0.00,CLR,OVC,0.00,WeatherDisplay:10.37,2013-08-21 20:10:00,
2013-08-21 16:11:00,89.6,70.2,30.01,SW,219,2.6,6.0,53,0.00,CLR,OVC,0.00,WeatherDisplay:10.37,2013-08-21 20:11:00,
2013-08-21 16:12:00,89.6,69.1,30.01,WSW,251,3.5,5.8,51,0.00,CLR,OVC,0.00,WeatherDisplay:10.37,2013-08-21 20:12:00,
2013-08-21 16:13:00,89.6,68.5,30.00,WSW,251,1.1,3.5,50,0.00,CLR,OVC,0.00,WeatherDisplay:10.37,2013-08-21 20:13:00,
2013-08-21 16:14:00,89.7,69.7,30.01,WSW,251,0.3,2.3,52,0.00,CLR,OVC,0.00,WeatherDisplay:10.37,2013-08-21 20:14:00,
2013-08-21 16:15:00,89.7,69.7,30.00,WSW,251,1.0,2.3,52,0.00,CLR,OVC,0.00,WeatherDisplay:10.37,2013-08-21 20:15:00,
2013-08-21 16:16:00,89.7,70.3,30.00,West,276,3.4,6.0,53,0.00,CLR,OVC,0.00,WeatherDisplay:10.37,2013-08-21 20:16:00,
2013-08-21 16:17:00,89.7,69.2,30.00,West,279,3.4,5.8,51,0.00,CLR,OVC,0.00,WeatherDisplay:10.37,2013-08-21 20:17:00,
2013-08-21 16:18:00,89.8,69.3,30.01,West,279,1.7,3.5,51,0.00,CLR,OVC,0.00,WeatherDisplay:10.37,2013-08-21 20:18:00,
2013-08-21 16:19:00,89.8,69.8,30.00,West,279,1.5,3.5,52,0.00,CLR,OVC,0.00,WeatherDisplay:10.37,2013-08-21 20:19:00,
2013-08-21 16:20:00,89.8,70.4,30.01,West,279,2.7,4.0,53,0.00,CLR,OVC,0.00,WeatherDisplay:10.37,2013-08-21 20:20:00,
2013-08-21 16:21:00,89.8,70.4,30.00,West,279,3.4,4.0,53,0.00,CLR,OVC,0.00,WeatherDisplay:10.37,2013-08-21 20:21:00,
2013-08-21 16:22:00,89.8,71.5,30.01,West,279,2.7,3.5,55,0.00,CLR,OVC,0.00,WeatherDisplay:10.37,2013-08-21 20:22:00,
2013-08-21 16:24:00,89.8,72.0,30.00,West,279,1.5,3.5,56,0.00,CLR,OVC,0.00,WeatherDisplay:10.37,2013-08-21 20:24:00,
2013-08-21 16:26:00,89.8,70.9,30.00,West,279,1.7,2.3,54,0.00,CLR,OVC,0.00,WeatherDisplay:10.37,2013-08-21 20:26:00,
2013-08-21 16:28:00,89.9,69.3,30.00,West,279,2.6,4.6,51,0.00,CLR,OVC,0.00,WeatherDisplay:10.37,2013-08-21 20:28:00,
2013-08-21 16:29:00,90.0,70.0,30.00,West,279,2.4,3.5,52,0.00,CLR,OVC,0.00,WeatherDisplay:10.37,2013-08-21 20:29:00,
2013-08-21 16:30:00,90.1,71.2,30.00,West,279,2.8,4.0,54,0.00,CLR,OVC,0.00,WeatherDisplay:10.37,2013-08-21 20:30:00,
2013-08-21 16:31:00,90.0,70.6,30.00,West,279,4.3,5.8,53,0.00,CLR,OVC,0.00,WeatherDisplay:10.37,2013-08-21 20:31:00,
2013-08-21 16:32:00,90.0,70.0,30.00,West,279,3.9,5.8,52,0.00,CLR,OVC,0.00,WeatherDisplay:10.37,2013-08-21 20:32:00,
2013-08-21 16:33:00,89.9,70.5,30.00,West,279,3.0,3.5,53,0.00,CLR,OVC,0.00,WeatherDisplay:10.37,2013-08-21 20:33:00,
2013-08-21 16:34:00,89.9,70.5,30.00,West,279,1.7,3.5,53,0.00,CLR,OVC,0.00,WeatherDisplay:10.37,2013-08-21 20:34:00,
2013-08-21 16:35:00,89.8,70.4,30.00,West,279,2.8,4.0,53,0.00,CLR,OVC,0.00,WeatherDisplay:10.37,2013-08-21 20:35:00,
2013-08-21 16:36:00,89.8,70.4,30.00,West,279,3.3,3.5,53,0.00,CLR,OVC,0.00,WeatherDisplay:10.37,2013-08-21 20:36:00,
2013-08-21 16:37:00,89.8,70.9,30.00,West,279,2.9,3.5,54,0.00,CLR,OVC,0.00,WeatherDisplay:10.37,2013-08-21 20:37:00,
2013-08-21 16:38:00,89.8,71.5,30.00,West,279,2.6,3.5,55,0.00,CLR,OVC,0.00,WeatherDisplay:10.37,2013-08-21 20:38:00,
2013-08-21 16:40:00,89.8,70.4,30.00,West,279,2.9,4.0,53,0.00,CLR,OVC,0.00,WeatherDisplay:10.37,2013-08-21 20:40:00,
2013-08-21 16:41:00,89.8,70.4,30.00,West,279,3.1,4.0,53,0.00,CLR,OVC,0.00,WeatherDisplay:10.37,2013-08-21 20:41:00,
2013-08-21 16:42:00,89.8,70.4,30.00,West,279,2.8,4.0,53,0.00,CLR,OVC,0.00,WeatherDisplay:10.37,2013-08-21 20:42:00,
2013-08-21 16:43:00,89.9,69.9,30.00,West,279,2.5,3.5,52,0.00,CLR,OVC,0.00,WeatherDisplay:10.37,2013-08-21 20:43:00,
2013-08-21 16:45:00,89.9,69.3,30.00,West,279,2.9,3.5,51,0.00,CLR,OVC,0.00,WeatherDisplay:10.37,2013-08-21 20:45:00,
2013-08-21 16:46:00,90.0,69.4,30.00,West,279,2.2,3.5,51,0.00,CLR,OVC,0.00,WeatherDisplay:10.37,2013-08-21 20:46:00,
2013-08-21 16:47:00,90.0,68.9,30.00,West,279,0.9,3.5,50,0.00,CLR,OVC,0.00,WeatherDisplay:10.37,2013-08-21 20:47:00,
2013-08-21 16:48:00,90.1,69.5,30.00,West,279,1.6,2.3,51,0.00,CLR,OVC,0.00,WeatherDisplay:10.37,2013-08-21 20:48:00,
2013-08-21 16:50:00,90.3,71.4,30.00,West,279,1.1,2.3,54,0.00,CLR,OVC,0.00,WeatherDisplay:10.37,2013-08-21 20:50:00,
2013-08-21 16:51:00,90.4,73.1,30.00,West,279,1.5,2.3,57,0.00,CLR,OVC,0.00,WeatherDisplay:10.37,2013-08-21 20:51:00,
2013-08-21 16:52:00,90.5,72.1,30.00,West,279,0.7,2.3,55,0.00,CLR,OVC,0.00,WeatherDisplay:10.37,2013-08-21 20:52:00,
2013-08-21 16:53:00,90.6,71.7,30.00,West,279,1.7,3.5,54,0.00,CLR,OVC,0.00,WeatherDisplay:10.37,2013-08-21 20:53:00,
2013-08-21 16:55:00,90.3,71.4,30.00,West,279,2.1,3.5,54,0.00,CLR,OVC,0.00,WeatherDisplay:10.37,2013-08-21 20:55:00,
2013-08-21 16:56:00,90.3,70.3,30.00,West,279,1.0,2.3,52,0.00,CLR,OVC,0.00,WeatherDisplay:10.37,2013-08-21 20:56:00,
2013-08-21 16:57:00,90.4,70.4,30.00,West,279,0.9,2.3,52,0.00,CLR,OVC,0.00,WeatherDisplay:10.37,2013-08-21 20:57:00,
2013-08-21 16:58:00,90.5,71.0,30.00,West,279,0.2,2.0,53,0.00,CLR,OVC,0.00,WeatherDisplay:10.37,2013-08-21 20:58:00,
2013-08-21 16:59:00,90.5,71.0,30.00,West,279,0.8,2.0,53,0.00,CLR,OVC,0.00,WeatherDisplay:10.37,2013-08-21 20:59:00,
2013-08-21 17:00:00,90.6,71.1,30.00,West,279,2.7,3.5,53,0.00,CLR,OVC,0.00,WeatherDisplay:10.37,2013-08-21 21:00:00,
2013-08-21 17:02:00,90.6,71.7,30.00,West,279,1.7,3.5,54,0.00,CLR,OVC,0.00,WeatherDisplay:10.37,2013-08-21 21:02:00,
2013-08-21 17:04:00,90.6,71.7,30.00,West,279,2.4,3.5,54,0.00,CLR,OVC,0.00,WeatherDisplay:10.37,2013-08-21 21:04:00,
2013-08-21 17:05:00,90.5,72.7,30.00,West,279,1.8,2.3,56,0.00,CLR,OVC,0.00,WeatherDisplay:10.37,2013-08-21 21:05:00,
2013-08-21 17:07:00,90.4,72.0,30.00,West,279,0.4,2.3,55,0.00,CLR,OVC,0.00,WeatherDisplay:10.37,2013-08-21 21:07:00,
2013-08-21 17:09:00,90.2,71.8,29.99,West,279,0.1,2.3,55,0.00,CLR,OVC,0.00,WeatherDisplay:10.37,2013-08-21 21:09:00,
2013-08-21 17:10:00,90.2,73.4,29.99,West,279,1.3,2.3,58,0.00,CLR,OVC,0.00,WeatherDisplay:10.37,2013-08-21 21:10:00,
2013-08-21 17:12:00,89.9,73.7,29.99,West,279,1.8,3.5,59,0.00,CLR,OVC,0.00,WeatherDisplay:10.37,2013-08-21 21:12:00,
2013-08-21 17:14:00,89.7,74.9,29.99,West,279,1.3,3.5,62,0.00,CLR,OVC,0.00,WeatherDisplay:10.37,2013-08-21 21:14:00,
2013-08-21 17:15:00,89.5,75.2,29.99,West,279,1.4,2.3,63,0.00,CLR,OVC,0.00,WeatherDisplay:10.37,2013-08-21 21:15:00,
2013-08-21 17:17:00,89.4,75.6,29.99,West,279,0.9,2.3,64,0.00,CLR,OVC,0.00,WeatherDisplay:10.37,2013-08-21 21:17:00,
2013-08-21 17:18:00,89.3,75.5,29.99,West,279,1.8,3.5,64,0.00,CLR,OVC,0.00,WeatherDisplay:10.37,2013-08-21 21:18:00,
2013-08-21 17:19:00,89.3,75.0,29.99,West,279,1.6,3.5,63,0.00,CLR,OVC,0.00,WeatherDisplay:10.37,2013-08-21 21:19:00,
2013-08-21 17:20:00,89.2,75.0,29.99,West,279,1.5,3.5,63,0.00,CLR,OVC,0.00,WeatherDisplay:10.37,2013-08-21 21:20:00,
2013-08-21 17:22:00,88.9,74.7,29.99,West,279,1.6,3.5,63,0.00,CLR,OVC,0.00,WeatherDisplay:10.37,2013-08-21 21:22:00,
2013-08-21 17:23:00,88.8,74.6,29.99,West,279,1.8,3.5,63,0.00,CLR,OVC,0.00,WeatherDisplay:10.37,2013-08-21 21:23:00,
2013-08-21 17:24:00,88.6,74.9,29.99,West,279,1.4,2.3,64,0.00,CLR,OVC,0.00,WeatherDisplay:10.37,2013-08-21 21:24:00,
2013-08-21 17:25:00,88.6,74.9,29.99,West,279,1.2,2.3,64,0.00,CLR,OVC,0.00,WeatherDisplay:10.37,2013-08-21 21:25:00,
2013-08-21 17:27:00,88.3,74.6,29.99,West,279,0.2,1.2,64,0.00,CLR,OVC,0.00,WeatherDisplay:10.37,2013-08-21 21:27:00,
2013-08-21 17:28:00,88.0,74.3,29.99,West,279,1.3,3.0,64,0.00,CLR,OVC,0.00,WeatherDisplay:10.37,2013-08-21 21:28:00,
2013-08-21 17:30:00,87.6,73.9,29.99,West,279,2.6,3.5,64,0.00,CLR,OVC,0.00,WeatherDisplay:10.37,2013-08-21 21:30:00,
2013-08-21 17:32:00,87.1,74.4,29.99,West,279,1.4,3.5,66,0.00,CLR,OVC,0.00,WeatherDisplay:10.37,2013-08-21 21:32:00,
2013-08-21 17:33:00,86.9,74.2,29.99,West,279,1.2,2.3,66,0.00,CLR,OVC,0.00,WeatherDisplay:10.37,2013-08-21 21:33:00,
2013-08-21 17:35:00,86.8,74.1,29.99,West,279,1.0,2.3,66,0.00,CLR,OVC,0.00,WeatherDisplay:10.37,2013-08-21 21:35:00,
2013-08-21 17:37:00,86.5,73.8,29.99,West,279,0.9,1.2,66,0.00,CLR,OVC,0.00,WeatherDisplay:10.37,2013-08-21 21:37:00,
2013-08-21 17:38:00,86.4,74.1,29.99,West,279,0.8,2.3,67,0.00,CLR,OVC,0.00,WeatherDisplay:10.37,2013-08-21 21:38:00,
2013-08-21 17:40:00,86.2,73.5,29.99,West,279,1.1,2.3,66,0.00,CLR,OVC,0.00,WeatherDisplay:10.37,2013-08-21 21:40:00,
2013-08-21 17:42:00,85.8,73.1,29.99,West,279,2.3,3.5,66,0.00,CLR,OVC,0.00,WeatherDisplay:10.37,2013-08-21 21:42:00,
2013-08-21 17:43:00,85.8,73.6,29.99,West,279,1.8,3.5,67,0.00,CLR,OVC,0.00,WeatherDisplay:10.37,2013-08-21 21:43:00,
2013-08-21 17:45:00,85.6,73.4,29.99,West,279,1.5,2.3,67,0.00,CLR,OVC,0.00,WeatherDisplay:10.37,2013-08-21 21:45:00,
2013-08-21 17:46:00,85.6,73.4,29.99,West,279,1.5,2.3,67,0.00,CLR,OVC,0.00,WeatherDisplay:10.37,2013-08-21 21:46:00,
2013-08-21 17:47:00,85.5,72.8,29.99,West,279,1.9,3.0,66,0.00,CLR,OVC,0.00,WeatherDisplay:10.37,2013-08-21 21:47:00,
2013-08-21 17:48:00,85.4,73.2,29.99,West,279,2.4,3.5,67,0.00,CLR,OVC,0.00,WeatherDisplay:10.37,2013-08-21 21:48:00,
2013-08-21 17:50:00,85.3,73.5,29.99,West,279,1.6,3.5,68,0.00,CLR,OVC,0.00,WeatherDisplay:10.37,2013-08-21 21:50:00,
2013-08-21 17:51:00,85.3,73.5,29.99,West,279,1.4,3.5,68,0.00,CLR,OVC,0.00,WeatherDisplay:10.37,2013-08-21 21:51:00,
2013-08-21 17:53:00,85.3,73.5,29.99,West,279,0.8,1.2,68,0.00,CLR,OVC,0.00,WeatherDisplay:10.37,2013-08-21 21:53:00,
2013-08-21 17:54:00,85.2,73.4,29.99,West,279,1.4,2.3,68,0.00,CLR,OVC,0.00,WeatherDisplay:10.37,2013-08-21 21:54:00,
2013-08-21 17:56:00,85.1,73.8,29.98,West,279,2.2,3.5,69,0.00,CLR,OVC,0.00,WeatherDisplay:10.37,2013-08-21 21:56:00,
2013-08-21 17:58:00,85.0,73.7,29.98,West,279,2.2,3.5,69,0.00,CLR,OVC,0.00,WeatherDisplay:10.37,2013-08-21 21:58:00,
2013-08-21 17:59:00,85.0,74.1,29.99,West,279,1.7,3.5,70,0.00,CLR,OVC,0.00,WeatherDisplay:10.37,2013-08-21 21:59:00,
2013-08-21 18:01:00,84.9,73.6,29.98,West,279,2.5,3.5,69,0.00,CLR,OVC,0.00,WeatherDisplay:10.37,2013-08-21 22:01:00,
2013-08-21 18:03:00,84.8,73.1,29.98,West,279,2.3,3.5,68,0.00,CLR,OVC,0.00,WeatherDisplay:10.37,2013-08-21 22:03:00,
2013-08-21 18:04:00,84.8,73.1,29.98,West,279,2.8,3.5,68,0.00,CLR,OVC,0.00,WeatherDisplay:10.37,2013-08-21 22:04:00,
2013-08-21 18:06:00,84.5,73.2,29.98,West,279,1.4,3.5,69,0.00,CLR,OVC,0.00,WeatherDisplay:10.37,2013-08-21 22:06:00,
2013-08-21 18:08:00,84.5,74.1,29.98,SW,222,2.4,6.0,71,0.00,CLR,OVC,0.00,WeatherDisplay:10.37,2013-08-21 22:08:00,
2013-08-21 18:10:00,84.4,74.4,29.98,SSW,192,5.2,6.0,72,0.00,CLR,OVC,0.00,WeatherDisplay:10.37,2013-08-21 22:10:00,
2013-08-21 18:11:00,84.3,74.3,29.98,South,191,4.7,5.8,72,0.00,CLR,OVC,0.00,WeatherDisplay:10.37,2013-08-21 22:11:00,
2013-08-21 18:13:00,84.1,74.5,29.98,South,191,2.7,3.5,73,0.00,CLR,OVC,0.00,WeatherDisplay:10.37,2013-08-21 22:13:00,
2013-08-21 18:15:00,84.0,74.4,29.98,South,191,2.8,4.0,73,0.00,CLR,OVC,0.00,WeatherDisplay:10.37,2013-08-21 22:15:00,
2013-08-21 18:17:00,83.8,74.6,29.98,South,191,4.5,5.0,74,0.00,CLR,OVC,0.00,WeatherDisplay:10.37,2013-08-21 22:17:00,
2013-08-21 18:19:00,83.5,74.3,29.97,South,191,4.3,5.0,74,0.00,CLR,OVC,0.00,WeatherDisplay:10.37,2013-08-21 22:19:00,
2013-08-21 18:20:00,83.4,74.2,29.98,South,191,4.7,5.0,74,0.00,CLR,OVC,0.00,WeatherDisplay:10.37,2013-08-21 22:20:00,
2013-08-21 18:22:00,83.1,74.4,29.97,South,191,3.6,4.0,75,0.00,CLR,OVC,0.00,WeatherDisplay:10.37,2013-08-21 22:22:00,
2013-08-21 18:24:00,82.9,74.6,29.97,South,191,4.1,4.6,76,0.00,CLR,OVC,0.00,WeatherDisplay:10.37,2013-08-21 22:24:00,
2013-08-21 18:25:00,82.8,74.5,29.97,South,191,4.3,4.6,76,0.00,CLR,OVC,0.00,WeatherDisplay:10.37,2013-08-21 22:25:00,
2013-08-21 18:27:00,82.5,74.2,29.97,South,191,4.1,4.6,76,0.00,CLR,OVC,0.00,WeatherDisplay:10.37,2013-08-21 22:27:00,
2013-08-21 18:29:00,82.3,74.4,29.97,South,191,3.1,4.6,77,0.00,CLR,OVC,0.00,WeatherDisplay:10.37,2013-08-21 22:29:00,
2013-08-21 18:30:00,82.2,74.3,29.97,South,191,3.1,4.0,77,0.00,CLR,OVC,0.00,WeatherDisplay:10.37,2013-08-21 22:30:00,
2013-08-21 18:31:00,82.1,73.8,29.97,South,191,3.6,4.0,76,0.00,CLR,OVC,0.00,WeatherDisplay:10.37,2013-08-21 22:31:00,
2013-08-21 18:32:00,82.0,73.7,29.97,South,191,2.8,3.5,76,0.00,CLR,OVC,0.00,WeatherDisplay:10.37,2013-08-21 22:32:00,
2013-08-21 18:35:00,81.8,73.5,29.97,South,191,0.2,1.2,76,0.00,CLR,OVC,0.00,WeatherDisplay:10.37,2013-08-21 22:35:00,
2013-08-21 18:36:00,81.8,73.9,29.97,South,191,0.0,1.2,77,0.00,CLR,OVC,0.00,WeatherDisplay:10.37,2013-08-21 22:36:00,
2013-08-21 18:37:00,81.8,73.9,29.97,South,191,0.0,0.0,77,0.00,CLR,OVC,0.00,WeatherDisplay:10.37,2013-08-21 22:37:00,
2013-08-21 18:38:00,81.8,73.9,29.97,South,191,0.0,0.0,77,0.00,CLR,OVC,0.00,WeatherDisplay:10.37,2013-08-21 22:38:00,
2013-08-21 18:40:00,81.7,73.8,29.97,South,191,0.0,0.0,77,0.00,CLR,OVC,0.00,WeatherDisplay:10.37,2013-08-21 22:40:00,
2013-08-21 18:41:00,81.7,73.8,29.97,South,191,1.2,2.3,77,0.00,CLR,OVC,0.00,WeatherDisplay:10.37,2013-08-21 22:41:00,
2013-08-21 18:42:00,81.6,73.7,29.97,South,191,1.2,2.3,77,0.00,CLR,OVC,0.00,WeatherDisplay:10.37,2013-08-21 22:42:00,
2013-08-21 18:43:00,81.6,73.7,29.97,South,191,0.7,1.2,77,0.00,CLR,OVC,0.00,WeatherDisplay:10.37,2013-08-21 22:43:00,
2013-08-21 18:45:00,81.8,73.9,29.97,South,191,1.6,2.3,77,0.00,CLR,OVC,0.00,WeatherDisplay:10.37,2013-08-21 22:45:00,
2013-08-21 18:46:00,81.8,73.9,29.97,South,191,1.0,2.3,77,0.00,CLR,OVC,0.00,WeatherDisplay:10.37,2013-08-21 22:46:00,
2013-08-21 18:47:00,81.3,73.4,29.97,South,191,1.0,2.3,77,0.00,CLR,OVC,0.00,WeatherDisplay:10.37,2013-08-21 22:47:00,
2013-08-21 18:48:00,81.8,73.9,29.97,South,191,0.5,1.2,77,0.00,CLR,OVC,0.00,WeatherDisplay:10.37,2013-08-21 22:48:00,
2013-08-21 18:50:00,81.9,74.0,29.98,South,191,1.3,2.3,77,0.00,CLR,OVC,0.00,WeatherDisplay:10.37,2013-08-21 22:50:00,
2013-08-21 18:51:00,81.7,73.8,29.97,South,191,1.5,2.3,77,0.00,CLR,OVC,0.00,WeatherDisplay:10.37,2013-08-21 22:51:00,
2013-08-21 18:53:00,81.6,73.7,29.97,South,191,1.8,3.5,77,0.00,CLR,OVC,0.00,WeatherDisplay:10.37,2013-08-21 22:53:00,
2013-08-21 18:54:00,81.6,73.7,29.97,South,191,1.2,3.5,77,0.00,CLR,OVC,0.00,WeatherDisplay:10.37,2013-08-21 22:54:00,
2013-08-21 18:55:00,81.7,73.8,29.97,South,191,0.6,2.3,77,0.00,CLR,OVC,0.00,WeatherDisplay:10.37,2013-08-21 22:55:00,
2013-08-21 18:56:00,81.7,73.8,29.97,South,191,0.5,2.3,77,0.00,CLR,OVC,0.00,WeatherDisplay:10.37,2013-08-21 22:56:00,
2013-08-21 18:58:00,81.7,73.8,29.97,South,191,3.1,3.5,77,0.00,CLR,OVC,0.00,WeatherDisplay:10.37,2013-08-21 22:58:00,
2013-08-21 18:59:00,81.8,73.9,29.97,South,191,3.1,3.5,77,0.00,CLR,OVC,0.00,WeatherDisplay:10.37,2013-08-21 22:59:00,
2013-08-21 19:00:00,81.7,73.8,29.97,South,190,3.8,5.0,77,0.00,CLR,OVC,0.00,WeatherDisplay:10.37,2013-08-21 23:00:00,
2013-08-21 19:01:00,81.8,73.5,29.97,South,190,4.3,5.8,76,0.00,CLR,OVC,0.00,WeatherDisplay:10.37,2013-08-21 23:01:00,
2013-08-21 19:03:00,81.8,73.5,29.97,South,190,3.9,4.6,76,0.00,CLR,OVC,0.00,WeatherDisplay:10.37,2013-08-21 23:03:00,
2013-08-21 19:04:00,81.7,73.0,29.97,South,190,3.8,4.6,75,0.00,CLR,OVC,0.00,WeatherDisplay:10.37,2013-08-21 23:04:00,
2013-08-21 19:06:00,81.8,73.1,29.97,South,175,4.7,6.0,75,0.00,CLR,OVC,0.00,WeatherDisplay:10.37,2013-08-21 23:06:00,
2013-08-21 19:07:00,81.7,73.0,29.97,South,174,5.1,6.9,75,0.00,CLR,OVC,0.00,WeatherDisplay:10.37,2013-08-21 23:07:00,
2013-08-21 19:08:00,81.8,73.1,29.97,South,174,5.0,6.9,75,0.00,CLR,OVC,0.00,WeatherDisplay:10.37,2013-08-21 23:08:00,
2013-08-21 19:09:00,81.7,72.6,29.97,South,174,3.5,5.8,74,0.00,CLR,OVC,0.00,WeatherDisplay:10.37,2013-08-21 23:09:00,
2013-08-21 19:11:00,81.7,73.0,29.97,South,174,4.4,4.6,75,0.00,CLR,OVC,0.00,WeatherDisplay:10.37,2013-08-21 23:11:00,
2013-08-21 19:13:00,81.7,73.0,29.97,South,174,3.4,4.6,75,0.00,CLR,OVC,0.00,WeatherDisplay:10.37,2013-08-21 23:13:00,
2013-08-21 19:14:00,81.7,72.6,29.97,South,174,4.8,5.8,74,0.00,CLR,OVC,0.00,WeatherDisplay:10.37,2013-08-21 23:14:00,
2013-08-21 19:16:00,81.7,72.6,29.97,South,173,4.4,5.8,74,0.00,CLR,OVC,0.00,WeatherDisplay:10.37,2013-08-21 23:16:00,
2013-08-21 19:18:00,81.6,72.5,29.97,South,173,4.5,5.8,74,0.00,CLR,OVC,0.00,WeatherDisplay:10.37,2013-08-21 23:18:00,
2013-08-21 19:19:00,81.4,72.7,29.97,South,173,5.3,7.0,75,0.00,CLR,OVC,0.00,WeatherDisplay:10.37,2013-08-21 23:19:00,
2013-08-21 19:21:00,81.4,72.3,29.97,South,174,5.0,8.1,74,0.00,CLR,OVC,0.00,WeatherDisplay:10.37,2013-08-21 23:21:00,
2013-08-21 19:23:00,81.3,72.2,29.97,SSE,168,5.7,8.1,74,0.00,CLR,OVC,0.00,WeatherDisplay:10.37,2013-08-21 23:23:00,
2013-08-21 19:24:00,81.3,72.2,29.97,SSE,168,5.5,8.1,74,0.00,CLR,OVC,0.00,WeatherDisplay:10.37,2013-08-21 23:24:00,
2013-08-21 19:26:00,81.3,72.2,29.97,SSE,168,5.3,6.9,74,0.00,CLR,OVC,0.00,WeatherDisplay:10.37,2013-08-21 23:26:00,
2013-08-21 19:28:00,81.2,72.5,29.96,SSE,168,4.9,6.9,75,0.00,CLR,OVC,0.00,WeatherDisplay:10.37,2013-08-21 23:28:00,
2013-08-21 19:29:00,81.2,72.5,29.97,SSE,168,4.8,5.8,75,0.00,CLR,OVC,0.00,WeatherDisplay:10.37,2013-08-21 23:29:00,
2013-08-21 19:31:00,81.1,72.0,29.96,SSE,168,5.0,5.8,74,0.00,CLR,OVC,0.00,WeatherDisplay:10.37,2013-08-21 23:31:00,
2013-08-21 19:32:00,81.1,72.4,29.96,SSE,168,4.9,6.0,75,0.00,CLR,OVC,0.00,WeatherDisplay:10.37,2013-08-21 23:32:00,
2013-08-21 19:33:00,81.1,72.0,29.96,SSE,168,4.5,5.8,74,0.00,CLR,OVC,0.00,WeatherDisplay:10.37,2013-08-21 23:33:00,
2013-08-21 19:35:00,81.0,72.3,29.96,SSE,168,5.3,5.8,75,0.00,CLR,OVC,0.00,WeatherDisplay:10.37,2013-08-21 23:35:00,
2013-08-21 19:37:00,80.9,72.2,29.96,SSE,162,5.0,6.0,75,0.00,CLR,OVC,0.00,WeatherDisplay:10.37,2013-08-21 23:37:00,
2013-08-21 19:38:00,80.8,72.1,29.96,SSE,162,4.3,5.8,75,0.00,CLR,OVC,0.00,WeatherDisplay:10.37,2013-08-21 23:38:00,
2013-08-21 19:39:00,80.7,72.0,29.96,SSE,162,4.1,5.8,75,0.00,CLR,OVC,0.00,WeatherDisplay:10.37,2013-08-21 23:39:00,
2013-08-21 19:40:00,80.6,71.9,29.96,SSE,162,4.9,6.0,75,0.00,CLR,OVC,0.00,WeatherDisplay:10.37,2013-08-21 23:40:00,
2013-08-21 19:42:00,80.5,71.8,29.96,SSE,162,4.1,5.8,75,0.00,CLR,OVC,0.00,WeatherDisplay:10.37,2013-08-21 23:42:00,
2013-08-21 19:44:00,80.4,72.1,29.96,SSE,162,3.8,5.8,76,0.00,CLR,OVC,0.00,WeatherDisplay:10.37,2013-08-21 23:44:00,
2013-08-21 19:46:00,80.3,72.0,29.97,SSE,162,3.8,4.6,76,0.00,CLR,OVC,0.00,WeatherDisplay:10.37,2013-08-21 23:46:00,
2013-08-21 19:47:00,80.3,72.0,29.96,SSE,162,3.9,4.6,76,0.00,CLR,OVC,0.00,WeatherDisplay:10.37,2013-08-21 23:47:00,
2013-08-21 19:49:00,80.1,71.8,29.96,SSE,162,3.9,4.6,76,0.00,CLR,OVC,0.00,WeatherDisplay:10.37,2013-08-21 23:49:00,
2013-08-21 19:51:00,79.9,71.7,29.96,SSE,162,4.0,6.9,76,0.00,CLR,OVC,0.00,WeatherDisplay:10.37,2013-08-21 23:51:00,
2013-08-21 19:52:00,79.9,71.7,29.96,SSE,162,4.3,5.0,76,0.00,CLR,OVC,0.00,WeatherDisplay:10.37,2013-08-21 23:52:00,
2013-08-21 19:54:00,79.8,71.6,29.96,SSE,162,4.8,8.1,76,0.00,CLR,OVC,0.00,WeatherDisplay:10.37,2013-08-21 23:54:00,
2013-08-21 19:56:00,79.6,71.4,29.96,SSE,162,3.5,4.6,76,0.00,CLR,OVC,0.00,WeatherDisplay:10.37,2013-08-21 23:56:00,
2013-08-21 19:57:00,79.6,71.4,29.96,SSE,162,2.9,3.5,76,0.00,CLR,OVC,0.00,WeatherDisplay:10.37,2013-08-21 23:57:00,
2013-08-21 19:59:00,79.4,71.6,29.96,SSE,162,2.7,3.5,77,0.00,CLR,OVC,0.00,WeatherDisplay:10.37,2013-08-21 23:59:00,
2013-08-21 20:01:00,79.3,71.5,29.96,SSE,162,4.0,5.8,77,0.00,CLR,OVC,0.00,WeatherDisplay:10.37,2013-08-22 00:01:00,
2013-08-21 20:02:00,79.2,71.4,29.96,SSE,162,3.4,4.0,77,0.00,CLR,OVC,0.00,WeatherDisplay:10.37,2013-08-22 00:02:00,
2013-08-21 20:04:00,79.1,71.3,29.96,SSE,162,3.2,4.6,77,0.00,CLR,OVC,0.00,WeatherDisplay:10.37,2013-08-22 00:04:00,
2013-08-21 20:05:00,79.1,71.3,29.96,SSE,162,3.0,6.0,77,0.00,CLR,OVC,0.00,WeatherDisplay:10.37,2013-08-22 00:05:00,
2013-08-21 20:06:00,79.0,71.6,29.97,SSE,162,2.2,3.5,78,0.00,CLR,OVC,0.00,WeatherDisplay:10.37,2013-08-22 00:06:00,
2013-08-21 20:07:00,78.9,71.1,29.96,SSE,162,1.6,3.5,77,0.00,CLR,OVC,0.00,WeatherDisplay:10.37,2013-08-22 00:07:00,
2013-08-21 20:08:00,78.9,71.5,29.96,SSE,162,1.2,3.5,78,0.00,CLR,OVC,0.00,WeatherDisplay:10.37,2013-08-22 00:08:00,
2013-08-21 20:09:00,78.8,71.4,29.97,SSE,162,1.8,2.3,78,0.00,CLR,OVC,0.00,WeatherDisplay:10.37,2013-08-22 00:09:00,
2013-08-21 20:10:00,78.8,71.4,29.97,SSE,162,1.0,3.0,78,0.00,CLR,OVC,0.00,WeatherDisplay:10.37,2013-08-22 00:10:00,
2013-08-21 20:11:00,78.7,71.3,29.96,SSE,162,1.4,3.0,78,0.00,CLR,OVC,0.00,WeatherDisplay:10.37,2013-08-22 00:11:00,
2013-08-21 20:12:00,78.6,71.2,29.97,SSE,162,2.3,3.5,78,0.00,CLR,OVC,0.00,WeatherDisplay:10.37,2013-08-22 00:12:00,
2013-08-21 20:13:00,78.5,71.1,29.97,SSE,162,2.4,3.5,78,0.00,CLR,OVC,0.00,WeatherDisplay:10.37,2013-08-22 00:13:00,
2013-08-21 20:15:00,78.4,71.3,29.96,SSE,162,2.7,4.0,79,0.00,CLR,OVC,0.00,WeatherDisplay:10.37,2013-08-22 00:15:00,
2013-08-21 20:17:00,78.2,71.2,29.96,SSE,162,2.9,3.5,79,0.00,CLR,OVC,0.00,WeatherDisplay:10.37,2013-08-22 00:17:00,
2013-08-21 20:18:00,78.2,71.2,29.96,SSE,162,2.8,4.0,79,0.00,CLR,OVC,0.00,WeatherDisplay:10.37,2013-08-22 00:18:00,
2013-08-21 20:20:00,78.1,71.4,29.96,SSE,162,2.5,3.5,80,0.00,CLR,OVC,0.00,WeatherDisplay:10.37,2013-08-22 00:20:00,
2013-08-21 20:22:00,78.0,71.3,29.96,SSE,162,2.8,3.5,80,0.00,CLR,OVC,0.00,WeatherDisplay:10.37,2013-08-22 00:22:00,
2013-08-21 20:23:00,78.0,71.3,29.96,SSE,162,3.1,5.0,80,0.00,CLR,OVC,0.00,WeatherDisplay:10.37,2013-08-22 00:23:00,
2013-08-21 20:25:00,77.9,71.2,29.97,SSE,162,2.3,3.5,80,0.00,CLR,OVC,0.00,WeatherDisplay:10.37,2013-08-22 00:25:00,
2013-08-21 20:26:00,77.9,71.2,29.96,SSE,162,2.2,4.0,80,0.00,CLR,OVC,0.00,WeatherDisplay:10.37,2013-08-22 00:26:00,
2013-08-21 20:27:00,77.9,71.2,29.96,SSE,162,0.9,4.6,80,0.00,CLR,OVC,0.00,WeatherDisplay:10.37,2013-08-22 00:27:00,
2013-08-21 20:28:00,77.9,71.2,29.97,SSE,162,0.9,1.2,80,0.00,CLR,OVC,0.00,WeatherDisplay:10.37,2013-08-22 00:28:00,
2013-08-21 20:30:00,77.8,71.1,29.97,SSE,162,0.7,1.2,80,0.00,CLR,OVC,0.00,WeatherDisplay:10.37,2013-08-22 00:30:00,
2013-08-21 20:31:00,77.8,71.1,29.97,SSE,162,0.9,1.2,80,0.00,CLR,OVC,0.00,WeatherDisplay:10.37,2013-08-22 00:31:00,
2013-08-21 20:32:00,77.7,71.0,29.96,SSE,162,1.3,2.3,80,0.00,CLR,OVC,0.00,WeatherDisplay:10.37,2013-08-22 00:32:00,
2013-08-21 20:33:00,77.7,71.0,29.96,SSE,162,1.5,2.3,80,0.00,CLR,OVC,0.00,WeatherDisplay:10.37,2013-08-22 00:33:00,
2013-08-21 20:35:00,77.5,71.2,29.96,SSE,162,0.8,2.3,81,0.00,CLR,OVC,0.00,WeatherDisplay:10.37,2013-08-22 00:35:00,
2013-08-21 20:36:00,77.5,71.2,29.96,SSE,162,1.2,2.3,81,0.00,CLR,OVC,0.00,WeatherDisplay:10.37,2013-08-22 00:36:00,
2013-08-21 20:37:00,77.3,71.0,29.96,SSE,162,1.0,2.3,81,0.00,CLR,OVC,0.00,WeatherDisplay:10.37,2013-08-22 00:37:00,
2013-08-21 20:38:00,77.3,71.0,29.96,SSE,162,1.1,2.3,81,0.00,CLR,OVC,0.00,WeatherDisplay:10.37,2013-08-22 00:38:00,
2013-08-21 20:40:00,77.1,71.2,29.97,SSE,162,1.6,2.3,82,0.00,CLR,OVC,0.00,WeatherDisplay:10.37,2013-08-22 00:40:00,
2013-08-21 20:41:00,77.1,71.2,29.97,SSE,162,1.6,2.3,82,0.00,CLR,OVC,0.00,WeatherDisplay:10.37,2013-08-22 00:41:00,
2013-08-21 20:42:00,77.0,71.1,29.96,SSE,162,1.0,2.3,82,0.00,CLR,OVC,0.00,WeatherDisplay:10.37,2013-08-22 00:42:00,
2013-08-21 20:43:00,76.9,71.0,29.96,SSE,162,1.9,3.5,82,0.00,CLR,OVC,0.00,WeatherDisplay:10.37,2013-08-22 00:43:00,
2013-08-21 20:44:00,76.8,70.9,29.96,SSE,162,1.8,3.5,82,0.00,CLR,OVC,0.00,WeatherDisplay:10.37,2013-08-22 00:44:00,
2013-08-21 20:46:00,76.6,71.0,29.96,SSE,162,2.7,3.5,83,0.00,CLR,OVC,0.00,WeatherDisplay:10.37,2013-08-22 00:46:00,
2013-08-21 20:47:00,76.5,70.9,29.97,SSE,162,2.7,3.5,83,0.00,CLR,OVC,0.00,WeatherDisplay:10.37,2013-08-22 00:47:00,
2013-08-21 20:49:00,76.4,70.9,29.97,SSE,162,2.3,3.5,83,0.00,CLR,OVC,0.00,WeatherDisplay:10.37,2013-08-22 00:49:00,
2013-08-21 20:51:00,76.2,70.7,29.97,SSE,162,1.8,3.5,83,0.00,CLR,OVC,0.00,WeatherDisplay:10.37,2013-08-22 00:51:00,
2013-08-21 20:52:00,76.2,70.7,29.97,SSE,162,1.8,3.5,83,0.00,CLR,OVC,0.00,WeatherDisplay:10.37,2013-08-22 00:52:00,
2013-08-21 20:53:00,76.1,70.6,29.97,SSE,162,1.2,3.5,83,0.00,CLR,OVC,0.00,WeatherDisplay:10.37,2013-08-22 00:53:00,
2013-08-21 20:54:00,76.0,70.8,29.97,SSE,162,1.1,2.3,84,0.00,CLR,OVC,0.00,WeatherDisplay:10.37,2013-08-22 00:54:00,
2013-08-21 20:57:00,75.8,70.6,29.97,SSE,162,1.8,2.3,84,0.00,CLR,OVC,0.00,WeatherDisplay:10.37,2013-08-22 00:57:00,
2013-08-21 20:58:00,75.7,70.5,29.97,SSE,162,1.8,2.3,84,0.00,CLR,OVC,0.00,WeatherDisplay:10.37,2013-08-22 00:58:00,
2013-08-21 20:59:00,75.7,70.5,29.98,SSE,162,1.9,2.3,84,0.00,CLR,OVC,0.00,WeatherDisplay:10.37,2013-08-22 00:59:00,
2013-08-21 21:02:00,75.5,70.3,29.98,SSE,162,1.7,2.3,84,0.00,CLR,OVC,0.00,WeatherDisplay:10.37,2013-08-22 01:02:00,
2013-08-21 21:03:00,75.5,70.3,29.98,SSE,162,1.3,2.3,84,0.00,CLR,OVC,0.00,WeatherDisplay:10.37,2013-08-22 01:03:00,
2013-08-21 21:04:00,75.4,70.2,29.98,SSE,162,1.4,2.3,84,0.00,CLR,OVC,0.00,WeatherDisplay:10.37,2013-08-22 01:04:00,
2013-08-21 21:07:00,75.3,70.5,29.97,SSE,162,1.9,3.5,85,0.00,CLR,OVC,0.00,WeatherDisplay:10.37,2013-08-22 01:07:00,
2013-08-21 21:08:00,75.2,70.4,29.97,SSE,162,2.1,3.5,85,0.00,CLR,OVC,0.00,WeatherDisplay:10.37,2013-08-22 01:08:00,
2013-08-21 21:09:00,75.1,70.3,29.97,SSE,162,0.9,3.5,85,0.00,CLR,OVC,0.00,WeatherDisplay:10.37,2013-08-22 01:09:00,
2013-08-21 21:10:00,75.1,70.3,29.97,SSE,162,1.0,3.5,85,0.00,CLR,OVC,0.00,WeatherDisplay:10.37,2013-08-22 01:10:00,
2013-08-21 21:12:00,75.0,70.2,29.97,SSE,162,2.4,4.0,85,0.00,CLR,OVC,0.00,WeatherDisplay:10.37,2013-08-22 01:12:00,
2013-08-21 21:14:00,74.9,70.1,29.97,SSE,162,3.3,4.6,85,0.00,CLR,OVC,0.00,WeatherDisplay:10.37,2013-08-22 01:14:00,
2013-08-21 21:15:00,74.8,70.0,29.97,SSE,162,3.1,5.0,85,0.00,CLR,OVC,0.00,WeatherDisplay:10.37,2013-08-22 01:15:00,
2013-08-21 21:17:00,74.8,70.0,29.97,SSE,162,4.2,5.8,85,0.00,CLR,OVC,0.00,WeatherDisplay:10.37,2013-08-22 01:17:00,
2013-08-21 21:19:00,74.7,69.9,29.97,SSE,162,4.2,5.0,85,0.00,CLR,OVC,0.00,WeatherDisplay:10.37,2013-08-22 01:19:00,
2013-08-21 21:20:00,74.8,69.6,29.97,SSE,162,3.1,5.8,84,0.00,CLR,OVC,0.00,WeatherDisplay:10.37,2013-08-22 01:20:00,
2013-08-21 21:22:00,74.9,69.7,29.97,SSE,163,4.0,6.9,84,0.00,CLR,OVC,0.00,WeatherDisplay:10.37,2013-08-22 01:22:00,
2013-08-21 21:24:00,74.7,69.5,29.97,SSE,162,4.4,6.0,84,0.00,CLR,OVC,0.00,WeatherDisplay:10.37,2013-08-22 01:24:00,
2013-08-21 21:26:00,74.8,69.6,29.96,SSE,162,5.5,6.9,84,0.00,CLR,OVC,0.00,WeatherDisplay:10.37,2013-08-22 01:26:00,
2013-08-21 21:27:00,74.8,69.3,29.97,SSE,163,4.0,5.8,83,0.00,CLR,OVC,0.00,WeatherDisplay:10.37,2013-08-22 01:27:00,
2013-08-21 21:28:00,74.9,69.4,29.97,SSE,163,3.8,5.8,83,0.00,CLR,OVC,0.00,WeatherDisplay:10.37,2013-08-22 01:28:00,
2013-08-21 21:29:00,75.0,69.1,29.97,SSE,163,2.9,4.6,82,0.00,CLR,OVC,0.00,WeatherDisplay:10.37,2013-08-22 01:29:00,
2013-08-21 21:31:00,75.1,69.2,29.97,SSE,163,0.6,2.0,82,0.00,CLR,OVC,0.00,WeatherDisplay:10.37,2013-08-22 01:31:00,
2013-08-21 21:32:00,75.2,69.3,29.98,SSE,163,1.0,3.5,82,0.00,CLR,OVC,0.00,WeatherDisplay:10.37,2013-08-22 01:32:00,
2013-08-21 21:33:00,75.2,69.7,29.97,SSE,163,0.8,2.3,83,0.00,CLR,OVC,0.00,WeatherDisplay:10.37,2013-08-22 01:33:00,
2013-08-21 21:34:00,75.1,69.6,29.97,SSE,163,0.2,2.3,83,0.00,CLR,OVC,0.00,WeatherDisplay:10.37,2013-08-22 01:34:00,
2013-08-21 21:36:00,75.1,69.6,29.97,SSE,163,0.0,0.0,83,0.00,CLR,OVC,0.00,WeatherDisplay:10.37,2013-08-22 01:36:00,
2013-08-21 21:37:00,74.9,69.4,29.97,SSE,163,0.1,0.0,83,0.00,CLR,OVC,0.00,WeatherDisplay:10.37,2013-08-22 01:37:00,
2013-08-21 21:38:00,74.9,69.4,29.97,SSE,163,0.8,3.0,83,0.00,CLR,OVC,0.00,WeatherDisplay:10.37,2013-08-22 01:38:00,
2013-08-21 21:39:00,74.8,69.6,29.97,SSE,163,2.2,3.5,84,0.00,CLR,OVC,0.00,WeatherDisplay:10.37,2013-08-22 01:39:00,
2013-08-21 21:40:00,74.8,69.3,29.97,SSE,163,2.3,3.5,83,0.00,CLR,OVC,0.00,WeatherDisplay:10.37,2013-08-22 01:40:00,
2013-08-21 21:41:00,74.6,69.4,29.97,SSE,163,3.1,3.5,84,0.00,CLR,OVC,0.00,WeatherDisplay:10.37,2013-08-22 01:41:00,
2013-08-21 21:42:00,74.5,69.3,29.97,SSE,163,2.7,3.5,84,0.00,CLR,OVC,0.00,WeatherDisplay:10.37,2013-08-22 01:42:00,
2013-08-21 21:43:00,74.4,69.2,29.97,SSE,163,2.5,3.5,84,0.00,CLR,OVC,0.00,WeatherDisplay:10.37,2013-08-22 01:43:00,
2013-08-21 21:45:00,74.3,69.1,29.97,SSE,163,1.8,3.5,84,0.00,CLR,OVC,0.00,WeatherDisplay:10.37,2013-08-22 01:45:00,
2013-08-21 21:47:00,74.1,69.0,29.97,SSE,163,0.7,2.3,84,0.00,CLR,OVC,0.00,WeatherDisplay:10.37,2013-08-22 01:47:00,
2013-08-21 21:48:00,74.1,69.3,29.97,SSE,163,0.9,2.3,85,0.00,CLR,OVC,0.00,WeatherDisplay:10.37,2013-08-22 01:48:00,
2013-08-21 21:49:00,74.0,69.2,29.97,SSE,163,1.7,3.0,85,0.00,CLR,OVC,0.00,WeatherDisplay:10.37,2013-08-22 01:49:00,
2013-08-21 21:50:00,73.9,69.1,29.97,SSE,163,2.0,3.5,85,0.00,CLR,OVC,0.00,WeatherDisplay:10.37,2013-08-22 01:50:00,
2013-08-21 21:52:00,73.7,68.9,29.97,SSE,163,0.9,3.5,85,0.00,CLR,OVC,0.00,WeatherDisplay:10.37,2013-08-22 01:52:00,
2013-08-21 21:53:00,73.6,68.8,29.97,SSE,163,0.2,1.2,85,0.00,CLR,OVC,0.00,WeatherDisplay:10.37,2013-08-22 01:53:00,
2013-08-21 21:54:00,73.6,68.8,29.97,SSE,163,0.0,1.2,85,0.00,CLR,OVC,0.00,WeatherDisplay:10.37,2013-08-22 01:54:00,
2013-08-21 21:55:00,73.6,69.2,29.97,SSE,163,1.4,3.0,86,0.00,CLR,OVC,0.00,WeatherDisplay:10.37,2013-08-22 01:55:00,
2013-08-21 21:57:00,73.4,69.0,29.97,SSE,163,1.2,2.3,86,0.00,CLR,OVC,0.00,WeatherDisplay:10.37,2013-08-22 01:57:00,
2013-08-21 21:58:00,73.3,68.9,29.97,SSE,163,0.9,2.3,86,0.00,CLR,OVC,0.00,WeatherDisplay:10.37,2013-08-22 01:58:00,
2013-08-21 21:59:00,73.3,68.9,29.97,SSE,163,0.7,2.3,86,0.00,CLR,OVC,0.00,WeatherDisplay:10.37,2013-08-22 01:59:00,
2013-08-21 22:00:00,73.6,69.2,29.97,SSE,163,0.0,1.2,86,0.00,CLR,OVC,0.00,WeatherDisplay:10.37,2013-08-22 02:00:00,
2013-08-21 22:02:00,73.5,69.1,29.97,SSE,163,0.5,2.3,86,0.00,CLR,OVC,0.00,WeatherDisplay:10.37,2013-08-22 02:02:00,
2013-08-21 22:03:00,73.5,69.1,29.97,SSE,163,0.7,2.0,86,0.00,CLR,OVC,0.00,WeatherDisplay:10.37,2013-08-22 02:03:00,
2013-08-21 22:04:00,73.5,69.1,29.97,SSE,163,1.9,3.5,86,0.00,CLR,OVC,0.00,WeatherDisplay:10.37,2013-08-22 02:04:00,
2013-08-21 22:06:00,73.4,69.0,29.97,SSE,163,1.4,3.5,86,0.00,CLR,OVC,0.00,WeatherDisplay:10.37,2013-08-22 02:06:00,
2013-08-21 22:07:00,73.3,68.9,29.97,SSE,163,0.0,1.2,86,0.00,CLR,OVC,0.00,WeatherDisplay:10.37,2013-08-22 02:07:00,
2013-08-21 22:09:00,73.2,69.1,29.97,SSE,163,0.0,1.0,87,0.00,CLR,OVC,0.00,WeatherDisplay:10.37,2013-08-22 02:09:00,
2013-08-21 22:11:00,72.9,68.8,29.97,SSE,163,0.9,2.3,87,0.00,CLR,OVC,0.00,WeatherDisplay:10.37,2013-08-22 02:11:00,
2013-08-21 22:12:00,73.0,68.9,29.97,SSE,163,2.1,3.5,87,0.00,CLR,OVC,0.00,WeatherDisplay:10.37,2013-08-22 02:12:00,
2013-08-21 22:14:00,72.9,68.8,29.98,SSE,163,1.8,3.5,87,0.00,CLR,OVC,0.00,WeatherDisplay:10.37,2013-08-22 02:14:00,
2013-08-21 22:16:00,72.8,68.7,29.98,SSE,163,2.3,3.5,87,0.00,CLR,OVC,0.00,WeatherDisplay:10.37,2013-08-22 02:16:00,
2013-08-21 22:18:00,72.7,68.6,29.98,SSE,163,2.6,3.5,87,0.00,CLR,OVC,0.00,WeatherDisplay:10.37,2013-08-22 02:18:00,
2013-08-21 22:19:00,72.7,68.9,29.98,SSE,163,2.5,3.5,88,0.00,CLR,OVC,0.00,WeatherDisplay:10.37,2013-08-22 02:19:00,
2013-08-21 22:21:00,72.6,68.8,29.98,SSE,163,1.7,3.5,88,0.00,CLR,OVC,0.00,WeatherDisplay:10.37,2013-08-22 02:21:00,
2013-08-21 22:23:00,72.0,68.2,29.98,SSE,163,2.8,3.5,88,0.00,CLR,OVC,0.00,WeatherDisplay:10.37,2013-08-22 02:23:00,
2013-08-21 22:24:00,72.5,68.7,29.98,SSE,163,2.5,3.5,88,0.00,CLR,OVC,0.00,WeatherDisplay:10.37,2013-08-22 02:24:00,
2013-08-21 22:25:00,72.4,68.6,29.98,SSE,163,1.8,3.5,88,0.00,CLR,OVC,0.00,WeatherDisplay:10.37,2013-08-22 02:25:00,
2013-08-21 22:26:00,72.1,68.3,29.98,SSE,163,1.1,2.3,88,0.00,CLR,OVC,0.00,WeatherDisplay:10.37,2013-08-22 02:26:00,
2013-08-21 22:28:00,72.4,69.0,29.97,SSE,163,3.1,3.5,89,0.00,CLR,OVC,0.00,WeatherDisplay:10.37,2013-08-22 02:28:00,
2013-08-21 22:29:00,72.4,68.6,29.98,SSE,163,3.5,4.6,88,0.00,CLR,OVC,0.00,WeatherDisplay:10.37,2013-08-22 02:29:00,
2013-08-21 22:30:00,72.4,68.6,29.98,SSE,163,3.1,4.6,88,0.00,CLR,OVC,0.00,WeatherDisplay:10.37,2013-08-22 02:30:00,
2013-08-21 22:31:00,72.3,68.9,29.98,SSE,163,1.8,3.5,89,0.00,CLR,OVC,0.00,WeatherDisplay:10.37,2013-08-22 02:31:00,
2013-08-21 22:33:00,72.2,68.4,29.98,SSE,163,2.6,4.0,88,0.00,CLR,OVC,0.00,WeatherDisplay:10.37,2013-08-22 02:33:00,
2013-08-21 22:34:00,71.6,68.2,29.98,SSE,163,3.0,3.5,89,0.00,CLR,OVC,0.00,WeatherDisplay:10.37,2013-08-22 02:34:00,
2013-08-21 22:35:00,72.1,68.7,29.98,SSE,163,2.9,3.5,89,0.00,CLR,OVC,0.00,WeatherDisplay:10.37,2013-08-22 02:35:00,
2013-08-21 22:36:00,72.1,68.7,29.97,SSE,163,2.1,3.5,89,0.00,CLR,OVC,0.00,WeatherDisplay:10.37,2013-08-22 02:36:00,
2013-08-21 22:37:00,72.1,68.7,29.98,SSE,163,2.2,3.5,89,0.00,CLR,OVC,0.00,WeatherDisplay:10.37,2013-08-22 02:37:00,
2013-08-21 22:38:00,72.1,68.7,29.98,SSE,163,4.2,6.9,89,0.00,CLR,OVC,0.00,WeatherDisplay:10.37,2013-08-22 02:38:00,
2013-08-21 22:40:00,72.2,68.8,29.98,SSE,163,1.9,4.6,89,0.00,CLR,OVC,0.00,WeatherDisplay:10.37,2013-08-22 02:40:00,
2013-08-21 22:41:00,72.2,68.4,29.98,SSE,163,1.2,2.3,88,0.00,CLR,OVC,0.00,WeatherDisplay:10.37,2013-08-22 02:41:00,
2013-08-21 22:42:00,72.2,68.4,29.98,SSE,163,1.0,2.3,88,0.00,CLR,OVC,0.00,WeatherDisplay:10.37,2013-08-22 02:42:00,
2013-08-21 22:44:00,72.1,68.3,29.98,SSE,163,0.3,2.3,88,0.00,CLR,OVC,0.00,WeatherDisplay:10.37,2013-08-22 02:44:00,
2013-08-21 22:45:00,72.1,68.3,29.97,SSE,163,0.8,2.3,88,0.00,CLR,OVC,0.00,WeatherDisplay:10.37,2013-08-22 02:45:00,
2013-08-21 22:46:00,72.1,68.3,29.98,SSE,163,0.0,1.2,88,0.00,CLR,OVC,0.00,WeatherDisplay:10.37,2013-08-22 02:46:00,
2013-08-21 22:47:00,72.1,68.3,29.98,SSE,163,0.0,1.0,88,0.00,CLR,OVC,0.00,WeatherDisplay:10.37,2013-08-22 02:47:00,
2013-08-21 22:49:00,72.1,68.3,29.98,SSE,163,0.0,1.2,88,0.00,CLR,OVC,0.00,WeatherDisplay:10.37,2013-08-22 02:49:00,
2013-08-21 22:50:00,72.1,68.3,29.97,SSE,163,0.0,0.0,88,0.00,CLR,OVC,0.00,WeatherDisplay:10.37,2013-08-22 02:50:00,
2013-08-21 22:52:00,72.0,68.6,29.98,SSE,163,0.0,0.0,89,0.00,CLR,OVC,0.00,WeatherDisplay:10.37,2013-08-22 02:52:00,
2013-08-21 22:53:00,72.0,68.6,29.98,SSE,163,0.0,0.0,89,0.00,CLR,OVC,0.00,WeatherDisplay:10.37,2013-08-22 02:53:00,
2013-08-21 22:54:00,71.9,68.5,29.97,SSE,163,0.0,0.0,89,0.00,CLR,OVC,0.00,WeatherDisplay:10.37,2013-08-22 02:54:00,
2013-08-21 22:55:00,71.8,68.4,29.98,SSE,163,0.0,0.0,89,0.00,CLR,OVC,0.00,WeatherDisplay:10.37,2013-08-22 02:55:00,
2013-08-21 22:57:00,71.8,68.4,29.97,SSE,163,0.0,0.0,89,0.00,CLR,OVC,0.00,WeatherDisplay:10.37,2013-08-22 02:57:00,
2013-08-21 22:58:00,71.7,68.3,29.97,SSE,163,0.5,2.0,89,0.00,CLR,OVC,0.00,WeatherDisplay:10.37,2013-08-22 02:58:00,
2013-08-21 22:59:00,71.7,68.3,29.97,SSE,163,3.0,4.6,89,0.00,CLR,OVC,0.00,WeatherDisplay:10.37,2013-08-22 02:59:00,
2013-08-21 23:00:00,71.6,68.2,29.97,SSE,163,2.5,4.0,89,0.00,CLR,OVC,0.00,WeatherDisplay:10.37,2013-08-22 03:00:00,
2013-08-21 23:02:00,71.5,68.1,29.97,SSE,163,0.9,3.5,89,0.00,CLR,OVC,0.00,WeatherDisplay:10.37,2013-08-22 03:02:00,
2013-08-21 23:03:00,71.5,68.1,29.97,SSE,163,1.1,3.5,89,0.00,CLR,OVC,0.00,WeatherDisplay:10.37,2013-08-22 03:03:00,
2013-08-21 23:05:00,71.4,68.0,29.97,SSE,163,2.3,3.5,89,0.00,CLR,OVC,0.00,WeatherDisplay:10.37,2013-08-22 03:05:00,
2013-08-21 23:06:00,71.4,68.3,29.97,SSE,163,2.8,3.5,90,0.00,CLR,OVC,0.00,WeatherDisplay:10.37,2013-08-22 03:06:00,
2013-08-21 23:08:00,71.4,68.0,29.97,SSE,163,1.8,3.5,89,0.00,CLR,OVC,0.00,WeatherDisplay:10.37,2013-08-22 03:08:00,
2013-08-21 23:10:00,71.3,68.2,29.97,SSE,163,0.0,1.2,90,0.00,CLR,OVC,0.00,WeatherDisplay:10.37,2013-08-22 03:10:00,
2013-08-21 23:11:00,71.3,68.2,29.97,SSE,163,0.0,1.2,90,0.00,CLR,OVC,0.00,WeatherDisplay:10.37,2013-08-22 03:11:00,
2013-08-21 23:13:00,71.2,67.8,29.97,SSE,163,0.0,0.0,89,0.00,CLR,OVC,0.00,WeatherDisplay:10.37,2013-08-22 03:13:00,
2013-08-21 23:15:00,71.1,67.7,29.97,SSE,163,0.0,0.0,89,0.00,CLR,OVC,0.00,WeatherDisplay:10.37,2013-08-22 03:15:00,
2013-08-21 23:16:00,71.0,67.9,29.97,SSE,163,0.3,1.2,90,0.00,CLR,OVC,0.00,WeatherDisplay:10.37,2013-08-22 03:16:00,
2013-08-21 23:18:00,71.0,67.9,29.97,SSE,163,1.0,2.3,90,0.00,CLR,OVC,0.00,WeatherDisplay:10.37,2013-08-22 03:18:00,
2013-08-21 23:20:00,70.9,67.8,29.97,SSE,163,2.5,4.0,90,0.00,CLR,OVC,0.00,WeatherDisplay:10.37,2013-08-22 03:20:00,
2013-08-21 23:21:00,70.8,67.7,29.97,SSE,163,3.3,4.0,90,0.00,CLR,OVC,0.00,WeatherDisplay:10.37,2013-08-22 03:21:00,
2013-08-21 23:23:00,70.7,67.6,29.97,SSE,163,3.4,4.6,90,0.00,CLR,OVC,0.00,WeatherDisplay:10.37,2013-08-22 03:23:00,
2013-08-21 23:26:00,70.6,67.5,29.97,SSE,163,0.8,3.5,90,0.00,CLR,OVC,0.00,WeatherDisplay:10.37,2013-08-22 03:26:00,
2013-08-21 23:27:00,70.6,67.5,29.98,SSE,163,0.4,3.5,90,0.00,CLR,OVC,0.00,WeatherDisplay:10.37,2013-08-22 03:27:00,
2013-08-21 23:28:00,70.6,67.5,29.98,SSE,163,0.0,0.0,90,0.00,CLR,OVC,0.00,WeatherDisplay:10.37,2013-08-22 03:28:00,
2013-08-21 23:29:00,70.6,67.5,29.98,SSE,163,0.0,0.0,90,0.00,CLR,OVC,0.00,WeatherDisplay:10.37,2013-08-22 03:29:00,
2013-08-21 23:31:00,70.5,67.7,29.98,SSE,163,0.0,0.0,91,0.00,CLR,OVC,0.00,WeatherDisplay:10.37,2013-08-22 03:31:00,
2013-08-21 23:32:00,70.5,67.7,29.98,SSE,163,0.0,0.0,91,0.00,CLR,OVC,0.00,WeatherDisplay:10.37,2013-08-22 03:32:00,
2013-08-21 23:34:00,70.3,67.5,29.98,SSE,163,0.0,0.0,91,0.00,CLR,OVC,0.00,WeatherDisplay:10.37,2013-08-22 03:34:00,
2013-08-21 23:36:00,70.3,67.5,29.98,SSE,163,3.7,3.7,91,0.00,CLR,OVC,0.00,WeatherDisplay:10.37,2013-08-22 03:36:00,
2013-08-21 23:37:00,70.3,67.5,29.98,SSE,163,3.8,4.0,91,0.00,CLR,OVC,0.00,WeatherDisplay:10.37,2013-08-22 03:37:00,
2013-08-21 23:39:00,70.2,67.4,29.98,SSE,163,3.9,4.6,91,0.00,CLR,OVC,0.00,WeatherDisplay:10.37,2013-08-22 03:39:00,
2013-08-21 23:41:00,70.2,67.4,29.98,SSE,163,3.7,4.6,91,0.00,CLR,OVC,0.00,WeatherDisplay:10.37,2013-08-22 03:41:00,
2013-08-21 23:42:00,70.2,67.4,29.98,SSE,163,3.9,4.6,91,0.00,CLR,OVC,0.00,WeatherDisplay:10.37,2013-08-22 03:42:00,
2013-08-21 23:44:00,70.3,67.5,29.98,SSE,163,3.5,4.0,91,0.00,CLR,OVC,0.00,WeatherDisplay:10.37,2013-08-22 03:44:00,
2013-08-21 23:46:00,70.3,67.5,29.98,SSE,163,3.0,4.6,91,0.00,CLR,OVC,0.00,WeatherDisplay:10.37,2013-08-22 03:46:00,
2013-08-21 23:47:00,70.4,67.6,29.98,SSE,163,2.6,4.6,91,0.00,CLR,OVC,0.00,WeatherDisplay:10.37,2013-08-22 03:47:00,
2013-08-21 23:49:00,70.4,67.6,29.98,SSE,163,1.9,3.5,91,0.00,CLR,OVC,0.00,WeatherDisplay:10.37,2013-08-22 03:49:00,
2013-08-21 23:52:00,70.4,67.3,29.98,SSE,163,1.5,2.3,90,0.00,CLR,OVC,0.00,WeatherDisplay:10.37,2013-08-22 03:52:00,
2013-08-21 23:54:00,70.3,67.5,29.98,SSE,163,3.3,4.6,91,0.00,CLR,OVC,0.00,WeatherDisplay:10.37,2013-08-22 03:54:00,
2013-08-21 23:57:00,70.3,67.5,29.98,SSE,163,2.7,5.8,91,0.00,CLR,OVC,0.00,WeatherDisplay:10.37,2013-08-22 03:57:00,
2013-08-21 23:59:00,70.2,67.1,29.98,SSE,163,3.5,5.0,90,0.00,CLR,OVC,0.00,WeatherDisplay:10.37,2013-08-22 03:59:00,